[{"header": {"dx": 0.06612293990616946, "dy": 0.0552356325346848, "nx": 98, "ny": 59, "la1": 35.046912555036876, "la2": 31.78801023549047, "lo1": -121.43107172385933, "lo2": -114.95102361305473, "refTime": "2026041105", "parameterCategory": 1, "parameterNumber": 2}, "data": [-0.0, -0.0, -0.0, -0.0, -0.0, -0.0, 2.43, 4.66, 4.66, 4.66, 3.81, 3.68, 5.6, 6.2, 5.7, 3.39, 2.6, 2.6, 2.6, 2.1, 4.15, 5.2, 4.8, 7.59, 10.73, 7.9, 9.6, 7.59, -0.0, -0.0, -5.0, -10.6, -10.73, -6.71, -6.71, -5.94, -3.2, 0.0, 7.6, -0.0, -0.0, -0.0, -0.0, 4.1, 10.12, 13.58, 15.59, 16.79, 15.54, 13.1, 9.84, 9.17, 9.96, 8.85, 9.96, 9.96, 10.73, 10.99, 11.58, 11.81, 12.21, 11.99, 12.46, 12.79, 12.71, 12.89, 12.66, 12.17, 12.81, 14.16, 14.3, 13.81, 13.01, 12.0, 12.52, 12.47, 12.52, 13.41, 13.86, 12.47, 10.28, 6.95, 0.0, 0.0, 2.58, 4.2, 4.96, 5.31, 6.63, 7.96, 9.97, 10.6, 10.81, 10.81, 11.39, 12.52, 10.75, 9.63, -0.0, -0.0, -0.0, -0.0, -0.0, -0.0, 2.5, 4.81, 4.66, 2.09, 1.66, 2.13, 2.82, 3.39, 5.2, -0.0, -0.0, -0.0, -0.0, 1.69, 2.37, 4.48, 3.82, 4.32, 3.39, -0.0, 10.28, 10.28, 10.73, -5.0, -8.22, -12.07, -10.4, -5.81, -5.6, -5.06, 0.0, 2.54, 8.49, -0.0, -0.0, -0.0, 2.54, 8.58, 15.36, 17.19, 19.08, 17.26, 14.75, 11.64, 11.26, 10.79, 10.79, 9.77, 9.77, 9.17, 10.91, 11.5, 11.58, 11.81, 11.99, 11.85, 11.6, 12.58, 12.3, 10.79, 10.91, 11.35, 13.2, 14.56, 15.24, 15.0, 13.99, 12.96, 12.86, 12.9, 12.52, 13.41, 13.86, 12.47, 10.28, 6.95, 0.0, 0.0, 2.58, 4.2, 4.96, 5.31, 6.63, 7.96, 9.97, 10.6, 10.81, 10.81, 11.39, 12.52, 10.75, 9.63, -0.0, -0.0, -0.0, -0.0, -0.0, -0.0, 2.5, 4.81, 4.81, 2.02, 1.55, 1.28, 2.28, 2.82, 2.6, -0.0, -0.0, -0.0, -0.0, -0.0, -0.0, -0.0, 2.28, 4.75, 5.6, 2.49, 9.83, 0.0, -9.83, -3.39, -5.4, -8.85, -11.45, -8.94, -6.71, -8.49, 0.0, 8.0, 4.2, -0.0, -0.0, 1.96, 10.05, 15.33, 19.29, 20.12, 20.12, 17.97, 12.45, 12.3, 11.6, 11.99, 12.04, 11.2, 8.85, 10.73, 11.16, 11.72, 11.77, 11.99, 11.99, 10.79, 10.79, 10.79, 9.17, 9.17, 10.12, 11.35, 13.2, 14.56, 14.95, 15.66, 14.93, 13.41, 10.12, 10.87, 11.99, 14.3, 13.83, 13.34, 10.08, 6.95, 0.0, 0.0, 0.0, 2.17, 3.99, 5.31, 6.32, 8.82, 11.21, 11.9, 10.85, 11.37, 12.07, 10.38, 8.54, 8.58, 3.47, 3.47, -0.0, -0.0, -0.0, -0.0, -0.0, 2.5, 4.05, 1.96, 1.5, 1.33, 2.37, 2.19, -0.0, -0.0, -0.0, -0.0, -0.0, -0.0, -0.0, -0.0, -0.0, 5.2, 5.32, 5.75, 2.49, -0.0, -4.2, -4.6, -3.53, -3.68, -3.68, -1.52, -0.0, 1.84, 4.4, 6.2, 4.32, -0.0, -0.0, 5.94, 13.59, 15.72, 17.1, 16.54, 15.2, 12.07, 12.52, 12.71, 12.27, 12.71, 12.3, 10.41, 10.41, 10.79, 11.12, 12.33, 12.25, 11.5, 10.94, 10.23, 9.5, 8.85, 7.19, 9.17, 10.37, 11.16, 12.41, 13.14, 14.13, 14.74, 14.49, 12.6, 10.8, 4.24, 8.53, 12.72, 15.46, 12.89, 8.8, 8.18, 0.0, -1.67, -2.54, 0.0, 2.83, 3.8, 6.69, 10.3, 11.58, 11.52, 11.16, 11.4, 9.6, 7.68, 8.4, 8.56, 3.47, 2.81, 2.89, -0.0, -0.0, -0.0, -0.0, 2.15, 2.09, 3.36, 1.5, 1.33, -0.0, -0.0, -0.0, -0.0, -0.0, -0.0, -2.93, -0.0, -0.0, -0.0, -0.0, 5.2, 2.6, 2.19, 1.58, -0.0, -0.0, -2.13, -4.6, -5.45, -6.45, -4.72, -0.0, 3.07, 4.4, 6.43, 6.16, -0.0, 2.72, 6.87, 8.83, 8.59, 9.17, 9.66, 11.45, 12.52, 12.52, 12.96, 12.58, 12.58, 11.87, 8.85, 10.41, 10.79, 11.6, 11.99, 11.99, 11.37, 9.76, 9.17, 7.68, 7.78, 8.73, 9.48, 10.73, 10.47, 10.02, 11.17, 12.78, 15.09, 15.29, 14.42, 11.53, 2.19, 1.28, 8.22, 13.75, 12.87, 4.4, 4.2, 0.0, -3.8, -4.22, -2.69, 1.26, 4.6, 7.69, 9.91, 10.75, 11.88, 12.07, 10.41, 7.51, 7.33, 8.48, 9.24, 3.47, 5.31, 2.81, 2.43, -0.0, -0.0, -0.0, -0.0, 2.09, 1.72, 2.93, 2.49, -0.0, -0.0, -0.0, -0.0, -0.0, -0.0, -2.93, -3.96, -0.0, -0.0, -0.0, -0.0, -0.0, -0.0, -0.0, -0.0, -0.0, -0.0, -2.97, -5.86, -7.56, -9.42, -2.63, 4.24, 7.19, 9.8, 10.89, -0.0, -2.65, 2.35, 5.08, 6.44, 6.94, 6.94, 8.15, 8.85, 10.01, 10.01, 9.66, 8.85, 8.85, 8.85, 10.79, 10.79, 11.6, 12.04, 11.16, 10.91, 9.17, 6.94, 6.53, 7.26, 7.69, 8.94, 9.8, 8.1, 8.59, 9.8, 11.87, 13.49, 14.47, 15.12, 15.87, 14.3, 2.1, 0.0, 8.55, 10.04, 0.0, 1.75, 0.0, -3.8, -4.71, -2.17, 1.11, 5.92, 8.4, 8.06, 10.12, 12.52, 11.62, 7.15, 6.64, 8.4, 9.85, 11.0, 5.31, 5.31, 4.52, 2.43, 2.09, -0.0, -0.0, -0.0, -0.0, 1.96, 2.93, 2.39, 2.1, -0.0, -0.0, -0.0, -0.0, -0.0, -0.0, -5.6, -5.8, -6.4, -7.59, -2.21, -0.0, -2.89, -2.5, -0.0, -0.0, 1.76, -0.0, -2.97, -5.06, -5.06, -4.32, -0.0, 7.36, 9.8, 9.8, -0.0, -4.52, -0.0, 4.98, 6.9, 8.18, 7.96, 7.82, 7.68, 7.85, 6.94, 8.01, 7.85, 8.15, 8.85, 10.01, 12.3, 12.3, 12.3, 12.58, 10.37, 5.6, 4.12, 5.46, 6.4, 7.36, 8.31, 9.06, 8.59, 9.48, 12.11, 13.15, 14.23, 15.0, 16.2, 16.2, 15.83, 14.75, 3.25, 0.0, 4.4, 0.0, 0.0, 0.0, -1.69, -2.6, 0.0, 2.35, 5.35, 5.49, 7.69, 12.52, 12.52, 7.6, 5.1, 6.32, 8.22, 10.96, 11.57, 5.15, 5.31, 4.52, 4.52, 2.09, -0.0, -0.0, -0.0, -0.0, 1.9, 1.39, 2.39, 2.02, -0.0, -0.0, -0.0, -0.0, -0.0, -0.0, -0.0, -9.48, -11.99, -11.99, -11.06, -2.98, -3.69, -7.0, -0.0, 3.58, -0.0, -2.37, -2.37, -2.45, -0.0, -0.0, -0.0, 11.6, 8.94, 9.3, 6.45, -0.0, -6.2, -0.0, 12.01, 11.38, 10.12, 7.95, 7.95, 6.7, 6.87, 6.97, 7.24, 8.85, 8.85, 9.77, 11.87, 12.07, 12.07, 12.07, 8.53, 1.44, 2.13, 3.81, 5.73, 7.82, 8.61, 9.6, 10.3, 12.74, 13.77, 14.3, 14.75, 15.2, 15.62, 16.09, 15.2, 14.62, 12.39, 12.52, 13.88, 7.0, 0.0, 0.0, 0.0, 0.0, 1.11, 2.56, 2.43, 7.69, 12.07, 10.84, 6.32, 3.4, 5.1, 6.63, 9.54, 11.57, 11.55, 5.15, 7.36, 6.4, 3.93, 2.09, 1.83, -0.0, -0.0, -0.0, -0.0, 1.64, 1.44, -0.0, -0.0, -0.0, -0.0, -0.0, -0.0, -0.0, -0.0, -0.0, -0.0, -6.2, -10.12, -7.19, -7.9, -6.95, -6.2, -0.0, -0.0, -7.69, -8.43, -6.8, -0.0, 8.85, 11.62, 11.18, 11.18, 10.28, 8.55, 9.17, -0.0, 10.43, 11.2, 9.67, 8.73, 8.85, 7.44, 6.94, 7.68, 8.59, 7.85, 8.53, 8.53, 9.42, 9.67, 11.62, 8.22, 11.62, -0.0, -0.0, 1.03, 2.92, 5.15, 7.01, 9.12, 11.29, 11.52, 13.2, 13.86, 13.5, 13.01, 13.88, 14.15, 13.88, 13.94, 12.92, 12.07, 13.86, 16.09, 16.54, 0.0, 0.0, 1.28, 1.16, 0.0, 3.14, 11.6, 10.18, 8.8, 7.44, 4.46, 1.63, 5.69, 8.91, 10.22, 12.07, 11.18, 7.13, 6.2, 6.4, 5.63, 3.58, 1.83, -0.0, -0.0, -0.0, -0.0, -0.0, -0.0, 1.71, 1.9, -0.0, -0.0, -0.0, -0.0, 4.66, -0.0, -0.0, -0.0, -0.0, -0.0, -4.52, -5.2, -6.64, -4.8, -4.66, -3.47, -10.43, -16.54, -15.65, -13.86, 12.07, 7.9, 10.73, 9.39, 11.62, 12.3, 10.79, 9.17, 11.03, 9.75, 9.97, 8.94, 9.08, 8.53, 9.17, 9.84, 9.5, 7.85, 7.56, 8.22, 9.3, 11.03, 11.62, 0.0, -0.0, -1.64, -0.0, -0.0, 2.64, 4.97, 7.1, 9.39, 12.16, 13.41, 12.39, 12.96, 11.12, 11.03, 12.42, 13.37, 13.15, 11.97, 10.16, 10.62, 11.56, 15.2, 7.8, 9.17, 3.25, 2.1, 2.02, 5.46, 10.28, 9.2, 9.2, 7.44, 4.46, 4.71, 5.06, 8.91, 10.73, 11.18, 12.07, 10.28, 6.2, 6.2, 6.4, 5.81, 3.58, 3.58, 1.83, -0.0, -0.0, -0.0, -0.0, 2.28, 1.96, 1.96, 3.47, -0.0, -0.0, 5.81, 8.05, 8.74, 4.23, -0.0, -0.0, 2.89, -0.0, -4.1, -5.7, -5.7, -4.1, -0.0, -9.17, -12.96, -12.07, -11.18, -11.18, -0.0, 10.4, 10.4, 11.45, 12.39, 11.44, 11.16, 11.03, 11.18, 10.73, 9.2, 8.58, 8.94, 8.94, 8.73, 6.16, 5.4, 4.99, 4.48, 5.4, 5.6, -5.8, -8.53, -8.53, -2.52, -1.15, -0.0, 2.56, 5.04, 7.43, 10.27, 11.38, 12.42, 11.5, 10.23, 12.27, 10.79, 9.5, 10.12, 10.82, 11.35, 10.23, 8.53, 8.85, 6.0, -0.0, 7.2, 10.75, 12.96, 11.62, 10.52, 9.63, 9.03, 8.8, 7.6, 8.49, 10.28, 8.49, 10.18, 10.96, 11.98, 10.28, 10.73, 6.2, 6.2, 5.63, 5.81, 5.18, 3.2, 1.83, 1.83, -0.0, -0.0, -0.0, -0.0, 2.09, 2.02, 4.24, 3.96, 4.65, 6.6, 11.38, 13.26, 13.23, 3.16, -0.0, 3.9, 3.25, -0.0, -3.96, -4.83, -3.53, -0.0, -0.0, -0.0, -0.0, -0.0, 10.73, 10.28, 9.2, 10.8, 10.41, 11.16, 11.09, 11.99, 11.45, 11.18, 10.28, 5.21, 2.6, 3.39, 2.6, 2.19, 2.16, 3.81, 3.46, 3.17, 2.81, 2.72, -0.0, -12.52, -8.85, -3.82, -1.3, -0.0, 3.58, 5.81, 7.16, 8.68, 8.77, 8.0, 7.11, 7.04, 8.16, 9.57, 12.96, 4.1, 6.43, 8.59, 9.17, 0.0, 12.52, -0.0, -0.0, 4.98, 8.85, 12.81, 10.94, 11.6, 11.03, 9.6, 9.11, 8.94, 0.0, 4.8, 4.6, 7.9, 9.96, 11.18, 10.18, 10.73, 6.2, 6.2, 5.63, 5.18, 5.18, 3.2, 3.2, 1.77, 1.77, -0.0, -0.0, 2.02, 2.09, 4.18, 4.3, 4.81, 5.31, 4.98, 9.17, 11.5, 9.48, 4.98, -0.0, -0.0, 3.68, 4.24, 4.98, 2.63, -0.0, -0.0, -0.0, -0.0, -0.0, -0.0, -0.0, -0.0, 7.27, 5.0, 8.22, 10.04, 8.85, 11.2, 10.8, 7.27, 4.4, -0.0, -0.0, -0.0, -0.0, 1.58, 0.97, 0.86, 0.8, 0.78, 2.56, 3.88, 6.6, 7.76, -0.0, -2.82, -1.25, 1.48, 4.38, 4.24, 3.01, 3.47, 2.5, 3.2, 4.77, 8.87, 11.16, 11.83, 10.17, 12.52, -5.4, 0.0, -13.86, -10.12, -0.0, 6.94, 6.45, 6.97, 10.19, 11.99, 10.23, 11.9, 13.15, 11.87, 10.58, 9.33, 0.0, 0.0, 0.0, 5.95, 8.58, 11.45, 10.28, 9.96, 6.2, 6.2, 5.46, 5.02, 5.18, 4.52, 4.52, 3.1, 1.58, 1.77, 1.77, 1.77, 2.09, 4.18, 4.42, 4.42, 5.09, 7.82, 9.22, 11.17, 10.12, 5.31, -0.0, -0.0, 2.21, 4.3, 5.63, 5.63, 4.38, 2.13, -0.0, -0.0, -0.0, -0.0, -0.0, -0.0, -0.0, 3.25, 7.27, 7.59, 11.03, 10.6, 10.0, 7.9, -0.0, -0.0, -0.0, -0.0, -0.0, -0.0, -0.0, -0.0, -0.0, -0.0, -0.0, 4.08, 5.4, 7.95, 6.95, -0.0, -1.25, 1.66, 1.9, 1.66, 1.04, 0.93, -0.0, -0.0, 4.21, 9.31, 11.76, 11.47, 9.8, 8.22, -10.73, -13.19, -0.0, 3.69, 9.22, 10.43, 10.3, 10.19, 10.94, 13.28, 10.73, 12.18, 13.11, 12.74, 10.17, 9.75, 9.33, 0.0, 0.0, 3.39, 7.59, 11.28, 9.97, 8.58, 6.2, 5.46, 5.46, 5.02, 5.02, 4.52, 4.52, 4.52, 3.1, 1.58, 1.58, 1.83, 3.58, 3.69, 5.65, 6.52, 7.4, 7.4, 10.05, 12.22, 10.75, 5.64, -0.0, -0.0, -0.0, -0.0, 2.65, 4.95, 6.8, 4.66, 2.28, -0.0, -0.0, -0.0, -0.0, -0.0, -0.0, 4.2, 7.9, 9.2, 9.6, 10.4, 9.6, 3.39, 2.28, -0.0, -0.0, -0.0, -0.0, -0.0, -0.0, -0.0, -0.0, 8.49, 8.49, 8.94, 3.11, 5.95, 7.63, 5.6, -0.0, -0.0, 1.5, 1.5, 1.5, -0.0, -0.0, 1.28, 5.32, 8.22, 9.17, 9.4, 9.17, 8.24, -0.0, -4.95, -0.0, 5.81, 8.97, 9.91, 11.25, 11.09, 10.66, 10.15, 10.04, 12.27, 12.82, 11.09, 9.9, 9.43, 9.38, 10.28, 0.0, 7.27, 10.28, 9.3, 7.9, 7.9, 6.2, 5.46, 5.46, 5.02, 5.02, 4.52, 4.52, 4.52, 3.1, 3.1, 3.2, 3.2, 3.2, 5.34, 5.49, 6.34, 6.52, 7.6, 9.42, 11.7, 11.38, 5.98, -0.0, -0.0, -0.0, -0.0, -0.0, 5.98, 8.05, 5.64, 2.5, -0.0, -0.0, -0.0, -0.0, -0.0, -0.0, -0.0, 5.0, 7.59, 7.27, 7.59, 7.59, 5.46, 2.97, -0.0, -0.0, -0.0, -0.0, -0.0, -0.0, -0.0, 6.32, 8.94, 8.49, 8.49, 8.49, 6.95, 8.22, 7.26, 4.05, 1.76, 2.1, 2.1, 2.02, -0.0, -0.0, 1.76, 4.4, 6.21, 7.79, 10.37, 12.16, 10.63, 11.44, -0.0, 1.42, 7.28, 9.62, 10.57, 12.22, 12.98, 12.27, 11.44, 9.9, 9.74, 10.28, 9.97, 9.38, 9.2, 9.05, 9.33, 8.55, 8.23, 9.2, 8.58, 7.9, 7.9, 6.2, 5.46, 5.63, 4.87, 4.87, 4.52, 4.52, 4.66, 4.11, 3.1, 3.2, 3.2, 3.3, 4.81, 5.49, 5.49, 6.16, 6.52, 9.42, 12.01, 11.7, 5.98, 2.28, 2.65, -0.0, -0.0, -0.0, 7.2, 9.66, 7.4, 3.33, -0.0, -0.0, -0.0, -2.17, -2.17, -0.0, -0.0, 7.27, 7.27, 7.59, 4.0, 4.4, 4.71, 2.97, -0.0, -0.0, -0.0, 2.69, 4.0, 4.0, 4.2, 6.64, 8.4, 8.4, 9.39, 9.33, 9.75, 10.0, 8.22, 5.75, 4.6, 5.46, 6.95, 4.4, -0.0, -0.0, -0.0, -0.0, 4.54, 9.8, 12.97, 15.77, 14.49, 12.13, 3.3, 4.81, 9.91, 12.36, 12.5, 12.37, 13.27, 12.86, 12.39, 11.75, 9.36, 9.83, 10.52, 9.6, 9.38, 9.05, 8.06, 8.0, 8.73, 9.09, 8.24, 7.9, 7.9, 5.46, 5.46, 5.63, 5.02, 4.87, 4.38, 4.52, 4.52, 4.24, 4.24, 3.2, 3.3, 4.81, 4.81, 6.17, 5.34, 5.49, 6.34, 9.17, 11.7, 11.38, 5.98, 4.3, 4.81, 3.79, -0.0, -0.0, 5.23, 9.17, 9.67, 4.23, -0.0, -0.0, -0.0, -0.0, -2.06, -2.83, -0.0, -0.0, -0.0, -0.0, -0.0, 6.01, 6.01, 4.0, 4.2, 4.0, 4.0, 6.64, 6.64, 6.64, 6.95, 6.95, 8.18, 8.18, 8.18, 8.18, 7.27, 7.59, 7.9, 7.9, 7.59, 7.27, 8.18, 6.64, -0.0, -4.46, -6.01, -8.8, 10.6, 15.09, 16.09, 18.96, 16.69, 14.39, 6.54, 8.4, 12.76, 14.2, 14.38, 13.89, 13.57, 13.44, 11.95, 10.43, 9.55, 9.63, 9.2, 9.96, 10.4, 9.3, 8.3, 8.18, 8.73, 8.93, 7.9, 8.41, 8.41, 5.46, 5.46, 5.46, 5.63, 4.87, 4.38, 3.1, 4.52, 4.66, 4.66, 3.2, 4.81, 4.95, 4.95, 4.81, 7.6, 5.18, 7.0, 8.68, 9.49, 7.0, 2.65, 2.21, 6.14, 2.98, -0.0, 4.38, 7.6, 12.33, 7.2, -0.0, -0.0, -3.51, -0.0, -0.0, -2.06, -2.39, -2.97, -0.0, -0.0, 7.27, 7.27, 10.28, 6.95, 6.95, 4.4, 6.95, 6.64, 8.4, 6.64, 6.95, 6.95, 9.33, 9.33, 8.18, 7.27, 6.95, 6.44, 6.71, 7.9, 8.58, 9.6, 8.55, 6.32, -0.0, -2.69, -6.01, -6.32, 0.0, 8.53, 13.79, 16.97, 22.22, 20.3, 17.49, 14.79, 15.18, 15.05, 15.41, 15.53, 14.3, 14.3, 13.86, 12.52, 11.58, 10.23, 10.47, 10.46, 10.27, 9.2, 9.09, 9.03, 9.2, 9.09, 8.53, 8.22, 9.3, 9.3, 6.88, 5.46, 5.46, 5.46, 4.87, 4.38, 3.1, 3.1, 4.66, 4.66, 4.66, 4.81, 4.95, 4.95, 6.35, 6.8, 6.6, 5.18, 8.05, 5.64, 7.6, 5.09, 4.42, 3.42, 6.14, 7.4, 11.7, 11.38, 10.19, 6.31, -0.0, -2.87, -3.42, -3.42, -0.0, -0.0, -0.0, -0.0, -0.0, 6.01, 8.94, 9.39, 9.39, 8.91, 8.48, 9.6, 6.95, 9.83, 9.39, 8.4, 8.4, 8.91, 8.91, 6.64, 6.32, 5.21, 7.59, 6.95, 8.23, 9.6, 9.2, 9.97, 9.33, 8.8, -0.0, -3.8, -5.36, -2.97, 10.28, 11.4, 13.41, 16.02, 22.57, 23.01, 18.76, 16.61, 14.13, 13.51, 15.38, 15.07, 15.05, 14.86, 14.37, 13.19, 12.01, 11.18, 9.97, 8.93, 9.7, 8.93, 9.6, 11.13, 10.79, 9.67, 9.27, 9.66, 9.67, 9.67, 6.88, 6.88, 5.46, 5.46, 4.87, 4.38, 3.01, 3.1, 3.2, 4.81, 4.66, 4.81, 4.95, 6.35, 6.35, 7.0, 6.6, 5.81, 5.8, 7.82, 8.74, 9.17, 7.4, 7.2, 8.74, 12.01, 12.87, 12.01, 5.51, 2.53, -0.0, -0.0, -2.87, -3.42, -0.0, -0.0, -0.0, -0.0, -0.0, 7.27, 8.4, 9.83, 9.83, 9.83, 8.91, 10.73, 9.83, 9.83, 9.39, 9.39, 8.94, 8.0, 6.32, 5.21, 5.46, 6.32, 8.55, 8.55, 8.93, 9.54, 9.83, 9.83, 9.83, -0.0, -2.83, -4.0, -5.21, -0.0, 4.8, 9.08, 11.12, 13.89, 20.19, 21.04, 18.65, 14.13, 10.05, 11.48, 11.91, 13.99, 14.95, 15.25, 14.99, 14.23, 13.41, 11.62, 10.18, 8.54, 9.55, 9.4, 10.32, 12.14, 11.44, 9.86, 9.82, 10.55, 10.4, 10.4, 6.88, 6.88, 6.88, 6.88, 4.87, 4.38, 3.01, 3.1, 3.2, 4.81, 4.81, 4.81, 4.81, 6.35, 6.35, 7.0, 6.8, 7.32, 8.18, 11.7, 12.01, 9.17, 8.93, 8.93, 10.61, 12.64, 12.33, 7.4, 4.54, 2.11, 2.16, -0.0, -2.87, -2.87, -0.0, -0.0, -0.0, 3.36, 3.96, 7.9, 7.27, 8.18, 8.91, 8.91, 8.48, 7.63, 10.28, 9.83, 9.39, 8.94, 7.6, 7.6, 6.01, 4.96, 4.96, 6.95, 6.95, 7.59, 8.93, 9.83, 8.94, 9.39, 9.39, -0.0, -1.84, -3.49, -3.49, -2.39, -0.0, 2.28, 4.93, 8.68, 16.71, 17.01, -2.93, 3.22, 6.28, 6.98, 7.37, 9.91, 13.03, 14.31, 15.2, 14.3, 13.86, 11.62, 10.08, 9.64, 10.2, 10.78, 10.6, 10.8, 11.2, 10.55, 10.4, 10.62, 10.62, 10.62, 6.88, 6.88, 6.88, 6.88, 4.87, 4.87, 3.1, 3.1, 3.2, 4.81, 4.81, 4.81, 4.95, 6.35, 6.35, 7.0, 6.8, 7.32, 10.75, 11.7, 12.01, 8.93, 8.43, 8.43, 9.17, 9.67, 8.0, 4.79, 2.11, 3.9, 4.54, 2.34, -0.0, -2.72, -0.0, -0.0, 3.16, 3.58, 5.8, 6.45, 7.59, 8.55, 8.8, 8.0, 7.2, 7.37, 9.83, 9.39, 8.94, 6.01, 5.69, 6.01, 6.01, 6.01, 6.32, 4.96, 5.21, 4.6, 5.95, -0.0, 0.0, 0.0, -4.2, -2.17, -3.32, -2.97, -1.84, -0.0, -0.0, -2.49, -2.82, 2.06, 18.68, 15.19, -8.73, -3.11, 1.19, 3.24, 3.21, 4.49, 7.82, 12.42, 13.75, 13.86, 13.86, 12.07, 10.28, 10.73, 10.79, 10.04, 10.94, 10.35, 10.6, 10.99, 10.79, 10.62, 11.03, 11.03, 6.88, 6.88, 6.88, 6.88, 6.88, 4.87, 3.01, 3.1, 3.2, 4.81, 4.81, 4.95, 6.35, 6.35, 6.35, 7.0, 8.29, 8.57, 10.02, 11.38, 11.7, 9.42, 7.98, 7.32, 8.43, 8.21, 6.87, 4.23, 4.79, 4.67, 5.09, 2.65, -0.0, -2.65, -0.0, -0.0, 5.98, 6.8, 8.05, 8.22, 7.27, 6.95, 9.2, 9.2, 8.0, 6.8, 9.83, 9.39, 8.94, 8.0, 8.0, 7.6, 6.01, 6.01, 6.01, 6.01, 2.54, 2.17, 3.82, 2.49, -8.49, -8.49, -6.01, -2.17, -3.32, -2.97, -0.0, -0.0, -0.0, -2.39, -7.27, 14.75, 22.26, 21.12, 17.26, -6.6, 0.0, 1.55, 1.47, 1.04, 2.65, 6.4, 11.53, 12.56, 12.58, 11.18, 10.73, 10.4, 9.66, 8.01, 9.08, 9.08, 10.28, 10.63, 10.58, 11.03, 10.88, 10.88, 7.69, 7.69, 7.69, 7.69, 6.88, 6.88, 3.01, 3.1, 3.2, 4.81, 4.81, 4.81, 6.35, 6.35, 6.35, 8.29, 8.29, 8.83, 9.73, 10.3, 10.3, 8.43, 8.43, 8.21, 7.76, 6.16, 6.69, 4.79, 5.51, 5.37, 5.37, -0.0, -0.0, -0.0, -0.0, 3.16, 7.2, 9.39, 8.58, 8.53, 7.27, 8.18, 8.8, 9.2, 8.8, 9.11, 7.89, 8.33, 8.67, 9.21, 8.77, 10.28, 8.06, 7.2, 7.6, 6.01, -0.0, -0.0, -0.0, 4.4, 6.95, -0.0, -4.0, -2.97, -3.49, -1.84, -2.02, -0.0, -0.0, -10.28, 6.2, 12.42, 17.74, 21.94, 20.46, 17.85, 17.78, 0.0, 0.0, 0.0, 0.0, 2.98, 8.83, 12.16, 11.16, 10.0, 10.84, 6.97, 6.44, 5.08, 6.96, 8.22, 10.19, 11.2, 10.55, 10.6, 10.27, 10.27, 7.69, 7.69, 7.69, 7.69, 7.69, 6.88, 4.87, 1.58, 3.2, 3.2, 4.81, 4.81, 6.35, 6.35, 6.35, 8.29, 8.29, 9.09, 10.02, 10.02, 9.09, 7.98, 8.43, 8.43, 8.21, 6.34, 6.34, 6.69, 7.8, 5.51, 2.79, -0.0, -0.0, -0.0, -0.0, 3.9, 7.2, 11.38, 11.06, 9.48, 7.9, 8.55, 8.8, 8.8, 9.2, 9.97, 9.64, 8.33, 8.77, 9.39, 9.39, 8.49, 9.83, 8.49, 7.6, 6.01, -0.0, -0.0, -3.6, 4.0, 8.18, 9.2, 4.0, -0.0, -2.97, -2.28, -2.49, -2.6, -3.25, -10.28, 4.8, 12.71, 14.5, 18.32, 19.65, 18.72, 17.34, 11.27, -2.65, 0.0, 0.0, 1.38, 6.17, 8.31, 8.53, 11.45, 7.24, 7.54, 6.94, 5.08, 7.19, 8.53, 11.05, 11.3, 10.0, 10.0, 10.21, 10.21, 7.69, 7.69, 7.69, 7.69, 7.69, 6.88, 5.46, 3.36, 1.58, 3.58, 5.34, 5.34, 7.0, 6.8, 7.0, 8.29, 9.09, 9.09, 10.02, 10.02, 9.09, 7.76, 7.98, 8.21, 8.21, 6.52, 6.34, 6.52, 6.69, 6.69, 2.4, -0.0, -0.0, -0.0, -0.0, 4.01, 7.4, 9.17, 9.17, 11.06, 9.8, 8.53, 8.58, 8.8, 9.55, 10.08, 10.08, 9.39, 8.94, 8.94, 8.94, 8.94, 7.97, 7.6, 8.05, 6.8, 3.6, -2.4, -5.95, -6.8, 6.64, 8.72, 8.93, 4.96, -0.0, -0.0, -0.0, -0.0, -0.0, 10.28, 7.9, 10.79, 13.86, 14.84, 15.72, 17.36, 18.33, 17.89, -5.98, -1.91, 0.0, 0.0, 2.02, 2.54, 11.62, 9.66, 9.17, 8.44, 7.28, 7.28, 8.15, 10.12, 11.5, 12.08, 11.3, 10.26, 10.15, 10.15, 7.69, 7.69, 7.69, 7.69, 7.69, 7.69, 6.88, 3.36, 1.77, 3.47, 5.18, 5.34, 6.8, 6.8, 6.8, 8.06, 9.09, 9.09, 10.02, 10.02, 9.09, 9.09, 9.09, 7.76, 7.98, 6.34, 3.9, 3.9, 4.01, 4.01, 4.01, 2.05, -0.0, -0.0, 2.79, 3.24, 7.4, 7.6, 7.6, 7.2, 10.43, 9.17, 8.94, 8.8, 9.2, 9.13, 10.08, 9.83, 8.94, 8.94, 8.82, 8.38, 8.38, 7.6, 7.15, 6.8, 2.4, -0.0, -3.97, -7.21, 8.05, 8.48, 8.8, 7.81, 2.97, 2.71, -0.0, 10.28, 0.0, 0.0, 7.9, 10.8, 12.14, 13.41, 14.25, 16.33, 20.43, 16.02, 0.0, -7.9, 0.0, 1.58, 2.15, 9.48, 11.45, 10.04, 9.17, 8.83, 9.48, 9.17, 9.62, 10.61, 11.26, 12.25, 12.39, 11.46, 10.94, 10.94, 7.69, 7.69, 7.69, 7.69, 7.69, 7.69, 6.88, 5.02, 1.77, 1.77, 5.18, 5.34, 5.49, 7.0, 7.0, 8.06, 8.83, 10.75, 9.73, 9.73, 9.09, 9.09, 9.09, 7.76, 6.16, 3.79, 3.39, 3.49, 3.59, 4.01, 4.01, 2.05, 2.05, 2.34, 2.72, 3.24, 6.14, 6.31, 6.31, 7.4, 9.39, 9.48, 8.22, 8.18, 6.64, 8.43, 9.6, 11.28, 11.62, 9.39, 8.94, 8.94, 8.33, 7.47, 5.36, 3.45, 2.4, -0.0, -0.0, -5.37, -7.6, 6.32, 8.91, 6.64, 5.7, 2.49, 2.6, -0.0, 0.0, 0.0, 7.9, 12.27, 12.22, 12.51, 13.35, 16.19, 18.76, 18.26, 16.05, 14.42, 0.0, 9.48, 15.2, 13.28, 10.94, 11.38, 10.62, 11.53, 11.88, 11.16, 10.99, 10.99, 11.6, 11.6, 12.66, 12.25, 11.33, 11.33, 7.69, 7.69, 7.69, 7.69, 7.69, 7.69, 7.69, 5.02, 3.47, 3.47, 3.47, 5.99, 5.99, 7.0, 7.2, 8.29, 8.83, 10.75, 9.73, 9.73, 9.09, 9.09, 7.76, 6.16, 3.79, 3.39, 3.3, 3.39, 3.49, 3.9, 3.49, 3.49, 3.49, 2.0, 2.34, 2.72, 2.72, 6.14, 6.31, 6.31, 9.66, 8.58, 7.51, 5.9, 5.69, 7.87, 10.8, 11.16, 11.16, 8.85, 8.94, 7.15, 6.01, 5.93, 4.19, 3.0, 2.26, 1.18, -0.0, -0.0, -0.0, 8.94, 7.6, 4.2, 2.97, -0.0, -0.0, 3.39, 4.2, 0.0, 3.53, 11.71, 12.96, 13.82, 14.11, 16.34, 16.7, 15.63, 16.02, 16.54, 15.55, 12.96, 13.32, 13.33, 12.64, 12.96, 12.58, 12.93, 12.79, 12.79, 11.5, 11.99, 12.18, 11.92, 11.99, 12.5, 11.99, 11.99, 7.44, 7.44, 7.69, 7.69, 8.66, 8.87, 7.69, 5.02, 3.47, 3.58, 3.58, 5.63, 5.99, 7.54, 7.76, 9.09, 10.02, 11.06, 11.06, 10.02, 10.02, 8.68, 7.76, 6.16, 3.79, 1.73, 1.51, 2.89, 3.3, 3.39, 3.49, 3.39, 3.39, 3.79, 2.28, 2.28, 2.72, 5.23, 6.14, 8.74, 9.92, 9.12, 7.78, 6.44, 5.36, 8.55, 11.6, 12.27, 11.44, 10.73, 10.4, 8.72, 6.23, 5.24, 3.63, 2.76, 2.66, 1.49, -0.0, -0.0, -0.0, 6.01, 6.01, 6.32, 6.32, -0.0, -3.8, 3.11, 7.27, 10.28, 4.4, 7.59, 12.39, 15.34, 17.43, 17.72, 17.16, 14.86, 14.3, 15.65, 16.54, 16.54, 14.31, 13.89, 14.62, 15.2, 14.97, 14.51, 13.32, 12.72, 12.6, 12.6, 12.72, 12.46, 12.22, 12.22, 11.8, 11.8, 7.44, 7.44, 8.59, 9.8, 9.8, 9.8, 7.69, 5.02, 5.02, 5.18, 5.81, 5.81, 5.81, 7.76, 7.76, 10.02, 10.02, 12.36, 11.38, 10.05, 10.05, 7.2, 6.16, 3.79, 3.39, 1.56, 1.51, 1.42, 2.28, 3.2, 3.39, 3.49, 3.49, 3.79, 3.79, 2.28, 4.42, 5.23, 5.23, 8.51, 8.51, 8.05, 8.66, 7.9, 8.23, 10.0, 12.04, 12.65, 12.87, 11.62, 10.08, 7.89, 6.94, 6.36, 5.2, 2.73, 1.3, -0.0, -0.0, -0.0, 3.0, 3.4, 7.6, 8.49, 8.94, 8.49, 8.05, 9.39, 10.28, 10.73, 9.83, 10.28, 12.52, 15.99, 20.03, 21.46, 16.17, 12.14, 12.88, 15.2, 16.95, 16.27, 14.36, 14.94, 15.9, 16.05, 16.52, 15.57, 14.03, 12.63, 12.51, 12.42, 12.75, 12.63, 11.95, 11.95, 11.52, 11.52, 8.59, 8.59, 8.59, 9.8, 9.8, 9.8, 7.69, 5.63, 5.02, 5.18, 5.81, 5.81, 5.81, 5.81, 10.02, 10.02, 11.06, 12.22, 13.42, 11.38, 9.66, 8.28, 6.34, 3.79, 3.3, 1.51, 1.51, 1.42, 3.01, 4.3, 4.66, 4.95, 3.9, 3.9, 3.9, 3.9, 4.42, 5.23, 7.4, 7.4, 8.51, 8.28, 8.94, 7.54, 8.58, 10.4, 11.6, 12.39, 12.39, 10.79, 9.21, 8.77, 8.48, 5.69, -0.0, -0.0, -0.0, -0.0, -0.0, -0.0, 2.6, 5.37, 6.32, 8.05, 8.49, 8.05, 8.05, 0.0, 8.8, 10.73, 10.28, 9.6, 11.62, 13.96, 19.22, 25.46, 14.75, 12.07, 12.07, 13.38, 14.47, 15.38, 15.41, 16.05, 16.69, 17.64, 17.66, 16.31, 14.18, 12.75, 12.22, 11.71, 12.45, 12.91, 12.83, 12.24, 11.23, 11.23, 8.59, 8.59, 9.48, 9.48, 9.8, 8.87, 7.69, 7.1, 5.63, 5.81, 5.81, 5.99, 5.81, 5.81, 9.73, 12.02, 13.02, 13.42, 12.52, 12.87, 9.66, 8.51, 6.34, 5.65, 3.3, 1.51, 1.51, 1.63, 3.2, 3.58, 5.18, 5.34, 3.79, 3.79, 3.9, 3.9, 4.42, 6.34, 7.4, 7.4, 7.4, 7.4, 9.49, 8.1, 8.22, 9.3, 8.85, 11.53, 12.39, 10.8, 9.13, 9.11, 8.4, -0.0, -0.0, 7.15, -0.0, -0.0, -0.0, -0.0, -0.0, 5.69, 5.69, 8.49, 7.6, 7.6, 8.05, 8.05, 6.64, 9.2, 9.83, 11.62, 12.07, 11.99, 17.66, 23.67, 18.88, 14.9, 13.74, 14.22, 14.67, 15.54, 16.37, 16.94, 16.95, 17.36, 17.81, 16.03, 13.72, 12.44, 11.91, 11.91, 12.07, 12.52, 12.52, 12.41, 11.96, 11.96, 9.48, 9.48, 9.48, 9.48, 9.8, 8.87, 7.69, 7.1, 7.32, 7.32, 7.54, 5.99, 6.8, 6.6, 8.18, 12.65, 13.59, 14.11, 13.59, 13.99, 9.66, 8.28, 6.34, 5.65, 3.39, 2.98, 1.68, 3.2, 3.58, 3.69, 5.34, 5.34, 3.69, 3.69, 3.79, 3.79, 4.42, 6.34, 6.52, 6.52, 6.52, 7.2, 6.8, 8.38, 8.53, 8.22, 8.85, 9.48, 11.16, 11.6, 8.58, 7.27, 5.21, 4.0, 3.8, 3.4, 5.06, 4.74, 3.47, 1.3, 3.48, 5.69, 5.69, 5.69, 6.01, 8.49, 7.6, 8.49, 6.32, 6.64, 9.33, 11.62, 12.71, 12.6, 15.38, 17.79, 18.74, 17.81, 16.05, 15.62, 15.2, 16.09, 16.54, 16.54, 16.05, 15.99, 15.99, 14.25, 12.39, 11.91, 11.46, 10.96, 11.62, 11.62, 12.07, 12.07, 12.03, 12.03, 9.48, 9.48, 9.48, 9.48, 9.8, 8.87, 7.93, 7.1, 7.32, 7.32, 7.54, 8.43, 6.8, 8.18, 8.18, 11.68, 13.97, 14.42, 14.11, 13.99, 11.06, 7.2, 6.34, 3.9, 3.39, 3.3, 3.3, 3.2, 3.58, 5.34, 5.34, 5.34, 3.58, 3.58, 3.58, 3.69, 4.3, 6.16, 6.34, 6.34, 6.34, 6.34, 7.0, 6.9, 8.53, 8.22, 8.53, 9.17, 9.48, 9.17, 6.97, 5.29, 5.06, 5.63, 3.8, 5.69, 4.56, 4.29, 3.45, 2.16, 1.99, 2.98, 5.69, 5.37, 7.2, 8.0, 8.05, 8.49, 8.94, 6.32, 7.59, 9.97, 13.41, 13.15, 14.58, 15.17, 15.27, 17.38, 19.93, 21.19, 19.22, 15.65, 14.75, 14.3, 13.44, 13.15, 12.58, 11.91, 11.46, 11.46, 11.46, 11.62, 11.62, 12.07, 12.07, 12.07, 12.07, 12.07, 9.17, 9.17, 9.48, 9.48, 9.8, 9.8, 9.16, 7.93, 7.32, 7.32, 8.43, 8.43, 8.43, 8.43, 9.22, 11.33, 13.97, 14.42, 14.9, 14.53, 11.06, 6.16, 3.9, 3.9, 3.39, 3.3, 5.34, 5.18, 5.18, 5.34, 5.34, 4.81, 4.66, 3.58, 3.58, 3.58, 3.58, 4.18, 6.16, 6.34, 6.34, 6.34, 5.99, 6.67, 6.42, 7.59, 6.97, 7.51, 7.78, 7.78, 7.24, 5.75, 5.29, 5.06, 5.36, 4.83, 4.56, 3.91, 2.49, 2.32, 2.16, 1.99, 3.6, 3.4, 7.2, 8.0, 8.05, 8.49, 8.94, 8.0, 8.4, 10.28, 12.52, 14.75, 14.68, 14.03, 14.75, 16.36, 20.3, 22.44, 20.49, 14.42, 13.41, 12.96, 12.04, 12.08, 12.08, 11.06, 11.46, 11.91, 12.07, 12.07, 11.84, 12.39, 12.42, 11.84, 11.88, 12.07, 9.17, 9.17, 9.48, 9.48, 9.8, 9.8, 9.16, 7.93, 8.18, 8.18, 8.43, 8.43, 9.49, 9.49, 10.75, 12.27, 12.81, 14.99, 14.99, 13.99, 8.68, 3.79, 1.94, 2.0, 3.79, 3.69, 5.18, 5.81, 3.58, 5.18, 5.34, 4.66, 4.66, 4.66, 3.58, 3.58, 3.47, 4.18, 4.18, 6.16, 6.16, 6.34, 5.81, 5.4, 5.72, 6.87, 8.22, 6.44, 6.9, 6.67, 7.51, 6.97, 6.44, 5.9, 5.36, 5.1, 4.56, 4.56, 1.32, 1.23, 1.14, 1.3, 3.6, 5.06, 7.6, 8.94, 8.49, 8.05, 8.49, 8.49, 8.94, 10.28, 11.91, 13.55, 17.43, 13.59, 11.44, 15.61, 19.21, 20.44, 17.53, 14.49, 14.06, 13.41, 12.88, 12.79, 12.24, 11.88, 12.07, 12.52, 12.52, 12.35, 11.87, 11.5, 11.72, 11.45, 11.56, 11.88, 9.17, 9.17, 9.17, 9.48, 9.8, 9.8, 9.16, 9.16, 8.18, 8.18, 9.73, 10.75, 10.75, 10.75, 10.75, 12.27, 13.19, 14.18, 14.42, 11.87, 6.16, 1.94, -0.0, 1.94, 1.94, 4.18, 4.05, 4.05, 3.93, 3.93, 3.58, 3.58, 4.66, 4.66, 4.52, 4.66, 3.47, 3.47, 3.69, 4.18, 6.16, 6.16, 5.81, 4.75, 5.95, 7.85, 8.87, 7.93, 8.94, 8.66, 9.17, 7.24, 6.44, 6.17, 5.36, 3.8, 3.6, 1.84, 1.73, 1.63, 1.52, 1.41, 2.98, 5.69, 7.2, 8.49, 7.6, 8.05, 8.49, 8.49, 6.32, 8.4, 11.4, 12.72, 14.7, 16.44, 11.06, 12.22, 16.73, 15.58, 14.56, 14.35, 14.31, 14.27, 13.41, 12.92, 12.83, 12.93, 12.52, 12.52, 12.39, 11.87, 11.2, 11.2, 11.2, 10.8, 10.55, 11.56, 9.17, 9.17, 9.17, 9.48, 9.48, 9.8, 8.87, 9.16, 9.16, 9.44, 10.43, 10.43, 10.75, 10.75, 11.52, 12.27, 13.19, 14.18, 13.99, 11.87, 4.18, -0.0, 1.68, 1.94, 1.94, 4.3, 4.05, 2.02, 2.02, 1.77, 1.77, 1.83, 3.58, 3.2, 4.52, 4.52, 4.52, 4.87, 5.02, 5.81, 5.81, 5.99, 6.4, 5.6, 6.45, 8.1, 9.89, 10.02, 8.18, 8.94, 8.66, 7.51, 6.44, 5.9, 4.0, 4.71, 4.46, 2.4, 2.4, -0.0, 2.12, 1.84, 5.37, 5.37, 7.2, 7.2, 8.05, 8.94, 8.05, 3.8, 4.0, 6.64, 10.41, 11.03, 11.72, 13.99, 18.73, 18.76, 15.27, 11.93, 11.99, 15.31, 16.96, 14.03, 12.96, 12.52, 12.52, 12.96, 12.96, 12.75, 11.87, 11.72, 10.87, 10.41, 10.41, 10.24, 9.82, 9.82, 9.62, 9.62, 9.96, 9.96, 10.3, 10.3, 8.87, 9.16, 9.16, 10.12, 10.43, 10.43, 10.43, 11.52, 11.52, 13.19, 13.56, 14.6, 14.6, 10.43, 3.69, 1.68, 1.68, 3.3, 3.69, 3.69, 3.58, 3.47, 1.58, -0.0, 1.53, 1.53, 1.77, 3.1, 3.1, 4.38, 4.38, 4.24, 4.38, 5.02, 5.63, 5.63, 6.2, 5.6, 7.54, 9.48, 10.43, 9.73, 7.93, 8.66, 8.38, 7.24, 5.9, 5.63, 4.0, 3.8, 2.54, 2.54, -0.0, -0.0, 2.26, 3.0, 2.6, 5.69, 5.69, 5.69, 6.01, 7.6, 3.4, 2.69, -0.0, 4.0, 10.18, 9.74, 12.04, 13.44, 15.9, 21.2, 16.8, 12.17, 11.94, 16.53, 20.63, 18.08, 12.42, 11.98, 12.14, 12.79, 12.63, 12.3, 11.39, 11.2, 10.41, 10.01, 9.66, 9.16, 9.16, 9.16, 9.62, 9.62, 9.96, 9.96, 10.3, 10.3, 9.8, 8.87, 8.87, 10.12, 10.99, 11.33, 11.52, 11.52, 11.52, 13.19, 14.18, 14.6, 14.75, 10.43, 3.69, 2.98, 2.98, 4.81, 4.81, 4.81, 4.24, 4.11, 2.72, 1.38, 1.33, 1.48, 2.91, 3.01, 3.1, 4.24, 4.24, 5.45, 5.45, 5.45, 6.2, 6.88, 5.28, 5.4, 7.26, 9.17, 9.16, 9.16, 8.59, 7.82, 7.54, 6.98, 5.63, 5.63, 4.0, 4.0, 2.54, 2.54, 2.54, -0.0, 2.4, 2.4, 3.0, -0.0, 5.69, 3.6, 6.01, 4.71, 2.54, 2.69, -0.0, 4.0, 9.39, 10.28, 11.18, 12.47, 14.15, 16.97, 18.11, 14.55, 13.51, 16.9, 20.96, 19.7, 13.05, 12.46, 10.41, 11.12, 11.6, 11.6, 10.99, 10.73, 10.04, 9.42, 8.53, 9.16, 9.16, 9.16, 10.41, 10.41, 10.79, 10.79, 10.3, 10.3, 9.8, 9.8, 10.12, 10.99, 10.99, 12.27, 12.27, 12.27, 13.19, 13.19, 14.18, 14.6, 14.75, 11.52, 5.34, 4.37, 4.37, 4.37, 5.64, 5.64, 5.48, 4.89, 3.65, 2.4, 2.4, 2.63, 2.63, 2.63, 2.91, 2.91, 4.1, 5.45, 5.45, 5.45, 6.0, 6.0, 6.43, 6.45, 6.2, 7.54, 8.59, 8.59, 8.59, 8.53, 6.98, 6.42, 4.6, 5.36, 3.8, 3.8, 2.54, 2.54, 2.4, 2.54, 2.54, 2.4, 2.26, 1.98, 3.8, 5.69, 6.01, 5.37, 2.69, 3.6, 6.64, 6.01, 9.39, 10.28, 10.73, 11.62, 13.01, 13.37, 14.51, 14.93, 15.14, 17.25, 20.88, 20.68, 13.11, 11.99, 6.43, 9.76, 10.12, 10.25, 10.55, 8.22, 9.5, 8.53, 7.85, 8.22, 8.22, 8.22, 10.41, 10.41, 10.79, 10.79, 9.96, 10.3, 9.48, 9.8, 10.12, 10.99, 11.9, 11.9, 12.27, 13.19, 13.19, 13.99, 14.6, 14.75, 14.75, 14.75, 6.6, 6.17, 4.37, 5.64, 5.64, 5.64, 5.48, 4.89, 3.65, 3.65, 3.53, 3.73, 3.73, 3.73, 3.73, 3.73, 4.1, 5.27, 5.45, 5.27, 6.3, 6.87, 6.87, 6.76, 6.2, 6.7, 8.3, 8.3, 8.3, 8.53, 7.9, 6.14, 5.59, 5.1, 4.83, 3.6, 2.54, 2.54, 2.4, 2.4, -0.0, -0.0, 2.26, 2.12, 1.84, 6.01, 5.69, 6.8, 7.2, 6.01, 8.49, 8.49, 8.94, 9.83, 10.73, 11.06, 11.99, 12.79, 12.07, 10.75, 12.64, 17.54, 20.47, 21.35, 13.98, 13.57, 4.24, 8.83, 9.17, 9.17, 7.54, 6.98, 7.26, 7.73, 7.44, 7.44, 7.44, 7.44, 10.41, 10.41, 10.79, 10.79, 11.16, 9.48, 9.48, 9.8, 10.65, 11.9, 11.9, 11.9, 12.27, 13.19, 13.19, 14.18, 14.6, 14.75, 14.75, 14.75, 8.57, 6.17, 5.64, 5.64, 5.64, 5.64, 5.48, 4.89, 4.74, 3.65, 3.53, 3.73, 3.73, 3.6, 3.6, 3.6, 3.96, 3.96, 5.27, 5.27, 6.3, 6.87, 6.87, 6.4, 6.5, 7.73, 8.01, 8.01, 8.01, 8.22, 7.59, 6.95, 5.59, 5.1, 3.6, 3.6, 1.95, 2.4, 2.54, 2.4, -0.0, -0.0, -0.0, -0.0, -0.0, -0.0, 5.69, 7.2, 7.6, 7.2, 8.49, 8.94, 9.39, 9.83, 10.52, 10.6, 11.3, 11.6, 10.59, 8.83, 9.34, 14.13, 18.8, 22.03, 16.27, 16.09, 0.0, 6.65, 8.3, 6.7, 3.68, 2.82, 4.15, 4.15, 5.75, 5.0, 5.0, 5.0, 10.41, 10.41, 10.79, 10.79, 10.79, 9.48, 9.8, 9.8, 10.65, 11.53, 11.9, 12.42, 12.79, 13.19, 14.18, 14.6, 14.6, 14.75, 14.75, 14.19, 12.42, 7.16, 5.64, 5.64, 4.37, 4.37, 4.24, 5.31, 5.15, 5.15, 4.98, 3.85, 3.73, 3.6, 3.6, 3.47, 3.47, 5.08, 5.08, 5.08, 6.63, 6.63, 7.51, 7.24, 7.27, 7.02, 8.01, 8.01, 7.73, 7.9, 7.59, 7.27, 5.86, 6.32, 3.6, 3.4, 1.84, 2.4, 2.4, 2.4, -0.0, -0.0, -0.0, -0.0, -0.0, -0.0, 5.37, 5.69, 6.01, 5.69, 8.0, 8.0, 9.39, 9.83, 9.97, 9.96, 10.68, 10.24, 9.76, 7.78, 8.51, 11.38, 15.04, 20.48, 19.67, 20.56, -9.61, 0.0, 8.85, 0.0, 0.0, 0.0, 0.0, 2.1, 2.19, 4.15, 4.15, 4.15, 10.41, 10.41, 10.79, 10.79, 10.79, 9.48, 9.8, 9.8, 11.53, 11.9, 12.42, 13.15, 13.56, 13.56, 14.18, 14.6, 14.75, 14.75, 14.75, 14.64, 13.56, 8.85, 7.38, 5.64, 4.37, 4.24, 4.24, 4.11, 5.15, 4.98, 4.98, 4.98, 4.81, 4.65, 4.65, 4.48, 4.9, 4.9, 4.9, 5.08, 6.63, 6.63, 6.63, 7.24, 7.56, 8.15, 8.44, 8.01, 7.44, 7.59, 7.27, 6.95, 7.68, 6.64, 5.1, 3.6, 3.4, 2.26, 2.26, 2.4, -0.0, -0.0, -0.0, -0.0, -0.0, -0.0, 3.0, 4.22, 4.46, 6.01, 6.32, 8.4, 8.4, 9.33, 9.97, 9.96, 9.58, 8.93, 8.15, 6.87, 7.11, 8.46, 10.49, 17.03, 22.41, 21.2, -13.86, -4.32, -0.0, 5.4, 0.0, -2.82, 0.0, 0.0, 0.0, 2.1, 2.1, 2.1, 10.41, 11.2, 11.6, 10.79, 10.79, 9.48, 9.8, 9.8, 11.53, 11.9, 13.15, 13.15, 13.56, 14.18, 14.18, 14.6, 14.75, 14.75, 14.75, 14.6, 13.56, 9.6, 8.06, 6.17, 4.24, 4.24, 4.24, 4.11, 5.15, 5.15, 4.98, 4.98, 4.81, 4.65, 4.65, 4.9, 4.9, 4.9, 4.9, 4.9, 6.4, 6.4, 6.4, 7.24, 7.85, 8.15, 8.44, 8.85, 7.44, 7.59, 7.27, 6.95, 7.68, 6.32, 5.1, 3.6, 3.6, 2.4, 2.26, 2.26, -0.0, -0.0, -0.0, -0.0, -0.0, -0.0, -0.0, -0.0, 2.4, 2.54, 3.8, 6.32, 8.4, 9.83, 10.28, 7.27, 7.59, 6.98, 6.7, 7.54, 6.65, 5.28, 7.93, 14.64, 25.32, -15.62, -11.1, -3.61, 1.52, 5.92, 7.9, 0.0, -5.0, -2.82, 0.0, 0.0, 0.0, 0.0, 11.2, 11.2, 11.2, 10.79, 10.79, 9.17, 9.48, 10.82, 11.53, 11.9, 13.15, 13.56, 13.56, 14.18, 14.18, 14.6, 14.75, 14.75, 14.75, 14.6, 13.56, 11.33, 7.82, 6.6, 4.66, 4.66, 4.24, 4.11, 5.15, 5.15, 4.98, 4.98, 4.81, 4.81, 5.08, 4.9, 4.9, 4.72, 4.72, 6.16, 6.4, 6.4, 6.4, 6.97, 7.85, 8.15, 8.44, 8.85, 8.53, 7.9, 7.9, 6.95, 7.68, 6.32, 5.1, 4.83, 3.6, 2.4, 2.4, 2.26, -0.0, -0.0, -0.0, -0.0, -0.0, -0.0, -0.0, -0.0, -0.0, 2.4, 2.54, 4.71, 5.21, 4.4, 6.95, 4.6, 5.95, 5.0, 6.97, 7.82, 8.1, 7.78, 9.48, 15.12, 22.39, -0.0, -11.77, -5.75, -2.49, 5.52, 7.9, 8.58, 0.0, -3.53, -3.39, -3.25, -3.25, -3.25, 11.2, 11.2, 11.2, 11.6, 10.12, 10.12, 10.47, 10.82, 11.53, 12.79, 13.15, 13.56, 13.56, 14.18, 14.18, 14.6, 14.75, 14.75, 14.75, 14.6, 13.99, 12.27, 9.6, 7.82, 6.6, 4.66, 4.52, 5.31, 5.15, 4.98, 4.98, 4.81, 4.81, 4.81, 5.08, 4.9, 4.9, 5.64, 5.64, 6.16, 6.16, 6.16, 6.97, 6.97, 7.56, 7.56, 7.85, 8.53, 8.53, 8.59, 8.24, 7.9, 7.68, 6.64, 6.32, 6.01, 4.46, 4.46, 2.4, 2.4, -0.0, -0.0, -0.0, -0.0, -0.0, -0.0, -0.0, -0.0, -0.0, -0.0, -0.0, 3.8, 6.01, 6.32, -0.0, -0.0, 3.25, 4.8, 6.71, 6.97, 7.54, 9.77, 12.3, 24.08, 22.86, 5.1, -15.19, -9.17, -2.6, -0.0, 6.7, 8.49, 9.2, 10.73, 0.0, 0.0, 0.0, 0.0, 11.2, 11.2, 11.2, 11.2, 10.12, 10.12, 10.47, 11.16, 11.53, 12.39, 13.15, 13.15, 13.56, 14.18, 14.6, 14.6, 14.75, 14.75, 14.75, 15.05, 13.56, 12.81, 11.2, 9.6, 6.6, 5.81, 5.81, 5.31, 5.15, 4.98, 4.98, 4.81, 4.81, 4.65, 5.08, 4.9, 5.86, 5.64, 5.64, 5.92, 6.16, 6.16, 6.76, 7.56, 7.27, 7.27, 8.22, 8.82, 8.22, 7.9, 8.24, 8.55, 7.68, 6.95, 6.64, 6.32, 6.01, 4.71, 2.54, 2.4, 2.26, -0.0, -0.0, -0.0, -0.0, -0.0, -0.0, -0.0, -0.0, -0.0, -0.0, -0.0, 6.01, 6.32, -0.0, -0.0, -0.0, 2.1, 5.52, 6.7, 6.98, 9.27, 15.38, 22.26, 20.86, 14.54, -16.76, -9.8, -2.45, -0.0, 5.52, 8.41, 9.09, 9.2, 10.41, 10.28, 10.28, 10.28, 11.2, 11.2, 11.2, 11.2, 9.77, 10.12, 10.47, 11.53, 12.39, 12.39, 12.74, 13.15, 14.31, 14.31, 14.64, 14.75, 14.75, 14.75, 14.75, 14.61, 13.97, 12.81, 12.0, 11.2, 8.31, 5.81, 5.81, 5.15, 5.15, 4.98, 4.98, 5.8, 5.8, 5.6, 5.6, 5.86, 5.86, 5.64, 5.64, 5.92, 5.92, 6.16, 6.76, 6.5, 7.27, 6.98, 7.59, 8.15, 7.59, 8.24, 8.24, 8.55, 7.68, 6.95, 6.95, 6.64, 6.32, 4.96, 4.71, 2.4, 2.4, -0.0, -0.0, -0.0, -0.0, 3.0, -0.0, -0.0, -0.0, 7.6, 8.05, 8.49, 8.94, 6.32, -0.0, -0.0, -0.0, 2.39, 5.52, 6.7, 6.98, 8.22, 14.33, 19.39, 20.7, 18.24, -15.65, -6.94, -0.0, 2.19, 6.71, 9.3, 9.86, 10.0, 10.32, 10.08, 10.08, 10.08, 11.87, 11.87, 11.2, 11.2, 9.77, 9.77, 10.12, 11.16, 11.99, 11.99, 12.74, 13.15, 13.88, 14.31, 14.64, 14.75, 14.75, 14.75, 14.6, 14.61, 13.2, 12.89, 12.89, 11.8, 10.12, 6.95, 6.4, 6.2, 6.2, 6.0, 5.8, 5.8, 5.6, 5.6, 5.6, 5.4, 5.86, 4.72, 4.54, 5.43, 5.92, 5.92, 6.5, 6.5, 7.59, 7.59, 7.59, 7.59, 7.27, 7.9, 7.9, 8.55, 8.03, 7.68, 6.95, 7.51, 6.64, 6.32, 4.71, 4.46, 2.54, 3.4, -0.0, -0.0, -0.0, -0.0, -0.0, -0.0, -0.0, 7.6, 8.05, 8.49, 8.49, -0.0, -0.0, -0.0, -0.0, -0.0, 5.7, 6.44, 6.44, 10.41, 13.19, 16.44, 22.47, 17.43, 13.99, -3.82, 2.02, 4.6, 7.9, 9.97, 10.4, 10.5, 10.47, 10.14, 10.14, 10.14, 11.87, 11.87, 11.87, 11.2, 11.12, 10.12, 10.12, 10.79, 11.99, 11.99, 12.74, 13.75, 13.88, 14.31, 14.64, 14.64, 14.6, 14.6, 14.18, 13.56, 13.59, 12.89, 12.89, 11.8, 9.42, 7.93, 6.4, 6.2, 6.0, 6.0, 5.8, 5.6, 5.6, 5.6, 5.4, 5.4, 5.4, 5.64, 5.64, 5.43, 5.92, 5.92, 5.92, 6.5, 6.24, 7.59, 7.59, 7.27, 7.9, 7.9, 8.55, 8.03, 8.03, 7.68, 6.95, 7.87, 6.64, 6.32, 4.96, 4.71, 3.6, 3.4, 3.4, -0.0, -0.0, -0.0, -0.0, -0.0, 4.74, 7.15, 7.6, 8.05, 8.05, -0.0, -0.0, -0.0, -0.0, -0.0, 4.6, 7.27, 7.9, 10.48, 13.15, 15.94, 20.01, 20.7, 15.0, 10.73, 6.95, 8.55, 9.6, 10.84, 11.35, 11.02, 10.52, 10.65, 10.65, 10.65, 11.87, 11.87, 11.87, 11.2, 11.12, 10.12, 10.12, 11.99, 11.99, 11.99, 13.32, 13.32, 13.75, 14.31, 14.31, 14.64, 14.6, 14.18, 13.81, 13.59, 12.89, 12.89, 13.29, 11.1, 9.42, 7.36, 7.13, 7.13, 6.9, 6.21, 5.36, 5.18, 5.18, 6.21, 6.21, 6.21, 5.64, 5.64, 5.64, 5.92, 5.92, 5.92, 5.92, 6.24, 6.24, 6.87, 6.87, 7.9, 7.9, 7.9, 8.55, 8.18, 8.03, 7.68, 7.68, 6.95, 7.51, 6.64, 6.32, 6.01, 6.01, 3.6, 3.6, 3.4, -0.0, -0.0, -0.0, -0.0, 7.15, 7.6, 7.6, 7.6, 8.05, 8.05, -0.0, -0.0, -0.0, -0.0, -0.0, 7.27, 9.3, 11.03, 12.75, 14.53, 18.35, 19.08, 15.35, 12.03, 8.94, 8.76, 9.96, 11.18, 11.18, 11.18, 10.73, 10.73, 10.73, 10.73, 11.87, 11.87, 11.87, 10.73, 11.12, 11.12, 11.12, 11.99, 11.99, 11.99, 13.32, 13.32, 13.75, 13.88, 14.31, 13.88, 13.88, 13.81, 13.81, 13.19, 12.89, 13.29, 13.29, 12.65, 8.78, 7.95, 7.95, 6.64, 6.42, 6.21, 6.21, 5.99, 5.99, 6.21, 6.21, 6.21, 6.7, 6.45, 6.97, 6.71, 6.71, 6.71, 6.44, 6.98, 6.98, 6.98, 7.27, 7.27, 7.9, 7.9, 7.9, 8.18, 7.68, 7.68, 7.68, 6.64, 7.51, 6.64, 6.64, 7.44, 6.01, 6.01, 3.6, 5.37, 5.37, -0.0, 7.15, 7.6, 7.6, 7.15, 7.15, 8.05, 8.05, 8.05, 8.49, 8.49, -0.0, -0.0, -0.0, 7.27, 7.59, 10.79, 12.27, 14.06, 17.0, 17.47, 15.19, 12.37, 10.91, 11.37, 11.2, 10.28, 11.02, 10.75, 11.09, 11.06, 11.06, 11.06, 11.87, 11.87, 11.87, 11.62, 10.73, 11.12, 11.12, 11.6, 11.99, 11.99, 13.32, 13.32, 13.75, 13.88, 13.88, 13.88, 13.88, 13.39, 13.81, 13.19, 12.9, 13.29, 12.65, 11.1, 9.5, 7.95, 7.44, 7.2, 6.42, 6.21, 6.21, 5.99, 5.78, 6.21, 6.21, 6.7, 6.7, 6.45, 6.97, 6.97, 6.71, 6.71, 7.27, 6.98, 6.98, 7.59, 7.27, 7.27, 7.9, 7.9, 7.56, 8.18, 8.18, 7.68, 7.68, 7.33, 7.51, 7.15, 6.64, 6.32, 6.32, 6.01, 5.69, 5.69, 5.37, 7.6, 7.6, 7.6, 8.05, 7.6, 7.15, 8.05, 7.6, 8.94, 8.05, 8.49, 8.94, -0.0, -0.0, -0.0, 7.27, 10.38, 11.84, 13.15, 15.41, 16.71, 14.26, 12.37, 10.81, 12.39, 12.97, 10.26, 10.73, 7.9, 9.58, 10.4, 10.4, 10.4, 12.35, 12.35, 12.3, 12.3, 12.04, 11.6, 11.6, 11.6, 11.6, 12.89, 12.89, 13.32, 13.88, 13.88, 13.88, 13.88, 13.57, 13.57, 13.57, 13.48, 12.9, 12.9, 12.27, 11.1, 9.5, 8.66, 7.95, 7.2, 7.2, 6.96, 6.96, 7.18, 6.92, 6.92, 6.92, 7.14, 7.14, 7.65, 6.97, 6.71, 6.71, 7.27, 7.27, 6.98, 6.98, 7.59, 7.59, 7.27, 7.9, 7.9, 7.56, 8.18, 8.18, 8.18, 7.33, 7.33, 7.51, 7.15, 7.15, 7.44, 7.44, 6.01, 6.01, 7.2, 7.2, 7.6, 7.6, 8.05, 0.0, 5.37, 5.06, 6.0, 4.11, 8.49, 7.6, 8.05, 8.49, 9.39, -0.0, -0.0, 9.2, 10.41, 11.35, 12.2, 13.49, 15.03, 13.89, 11.52, 11.52, 12.16, 13.15, 12.52, 9.38, 7.9, 6.71, 9.3, 9.3, 9.3, 12.35, 12.35, 12.3, 12.3, 12.04, 11.6, 11.6, 11.6, 11.6, 12.89, 12.89, 13.32, 13.88, 13.88, 13.88, 13.88, 13.57, 13.57, 13.57, 13.48, 12.9, 12.9, 12.27, 11.1, 9.5, 8.66, 7.95, 7.2, 7.2, 6.96, 6.96, 7.18, 6.92, 6.92, 6.92, 7.14, 7.14, 7.65, 6.97, 6.71, 6.71, 7.27, 7.27, 6.98, 6.98, 7.59, 7.59, 7.27, 7.9, 7.9, 7.56, 8.18, 8.18, 8.18, 7.33, 7.33, 7.51, 7.15, 7.15, 7.44, 7.44, 6.01, 6.01, 7.2, 7.2, 7.6, 7.6, 8.05, 0.0, 5.37, 5.06, 6.0, 4.11, 8.49, 7.6, 8.05, 8.94, 9.39, -0.0, -0.0, 9.2, 10.41, 10.75, 11.64, 11.92, 12.86, 12.89, 12.22, 11.87, 12.52, 13.51, 14.13, 10.55, 11.18, 0.0, 6.45, 6.45, 6.45]}, {"header": {"dx": 0.06612293990616946, "dy": 0.0552356325346848, "nx": 98, "ny": 59, "la1": 35.046912555036876, "la2": 31.78801023549047, "lo1": -121.43107172385933, "lo2": -114.95102361305473, "refTime": "2026041105", "parameterCategory": 1, "parameterNumber": 3}, "data": [14.75, 14.75, 14.75, 14.75, 14.75, 14.75, 14.55, 13.99, 13.99, 13.99, 13.32, 11.03, 11.2, 9.3, 8.55, 10.18, 10.41, 10.41, 10.41, 10.52, 10.38, 10.4, 9.6, 7.59, 0.0, 7.9, 4.8, 7.59, 11.18, 11.18, 10.0, 3.53, -0.0, -0.0, -0.0, -1.98, -6.4, -7.15, 0.0, 8.05, 8.49, 9.83, 11.62, 12.3, 10.12, 7.76, 7.8, 8.4, 9.71, 9.35, 8.44, 9.17, 8.3, 8.85, 8.3, 8.3, 8.05, 7.69, 6.76, 6.36, 5.55, 6.0, 3.56, 2.13, 2.54, 3.68, 5.63, 6.64, 7.32, 6.66, 6.35, 5.18, 3.25, 1.33, 0.0, 1.04, 0.0, 0.0, 0.0, -1.04, 0.0, -6.95, -9.83, -8.94, -9.03, -8.4, -7.44, -6.63, -5.31, -4.98, -5.98, -5.78, -6.31, -6.31, -5.18, 0.0, 3.07, 3.61, 14.3, 14.75, 14.75, 14.75, 14.75, 14.75, 14.99, 14.42, 13.99, 14.6, 13.31, 12.79, 11.28, 10.18, 10.4, 11.18, 10.28, 11.62, 10.73, 10.14, 11.84, 11.21, 11.45, 10.79, 10.18, 10.73, 0.0, 0.0, 0.0, 10.0, 8.22, -0.0, -5.2, -2.32, -2.8, -5.06, -8.05, -7.63, 0.0, 8.94, 9.83, 11.62, 12.71, 11.44, 6.14, 4.91, 4.77, 7.4, 8.43, 6.65, 6.43, 7.19, 7.19, 7.82, 7.82, 9.17, 7.79, 6.9, 6.76, 6.36, 6.0, 5.27, 5.8, 3.14, 4.1, 7.19, 7.79, 7.95, 7.54, 6.85, 6.42, 5.83, 3.0, 0.0, -1.61, -1.29, 0.0, 0.0, 0.0, -1.04, 0.0, -6.95, -9.83, -8.94, -9.03, -8.4, -7.44, -6.63, -5.31, -4.98, -5.98, -5.78, -6.31, -6.31, -5.18, 0.0, 3.07, 3.61, 14.3, 14.75, 14.75, 14.75, 14.75, 14.75, 14.99, 14.42, 14.42, 14.16, 12.42, 10.2, 11.4, 11.28, 10.41, 10.73, 11.18, 11.18, 11.18, 12.52, 11.18, 11.62, 11.4, 11.09, 11.2, 9.97, 0.0, -9.83, -0.0, 10.18, 10.8, 8.85, 3.82, -0.0, -0.0, -0.0, -8.05, -4.0, 8.4, 10.28, 11.62, 13.72, 12.57, 9.2, 3.86, 0.0, 0.0, 3.59, 4.98, 4.1, 5.8, 6.0, 4.81, 5.6, 8.85, 8.05, 7.44, 6.51, 6.42, 6.0, 6.0, 7.19, 7.19, 7.19, 9.17, 9.17, 8.1, 7.95, 7.54, 6.85, 7.08, 6.59, 4.67, 0.0, -8.1, -6.21, -3.6, 0.0, -0.92, -1.33, -2.02, -6.95, -8.94, -8.94, -8.94, -8.67, -6.99, -6.63, -6.32, -6.86, -8.15, -7.93, -7.89, -7.11, 0.0, 4.15, 4.88, 3.81, 13.88, 13.88, 14.75, 14.75, 14.75, 14.75, 15.2, 14.99, 14.18, 13.72, 11.98, 10.65, 11.84, 10.96, 11.18, 11.18, 11.62, 12.07, 12.07, 11.18, 11.18, 10.73, 11.18, 10.4, 9.32, 9.58, 9.97, 9.83, 8.4, 9.2, 10.6, 11.03, 11.03, 10.62, 9.39, 9.21, 8.8, 9.3, 10.79, 13.41, 16.09, 17.81, 13.59, 9.43, 3.42, 0.0, 0.0, 0.0, 0.0, 2.54, 2.45, 2.54, 4.1, 6.94, 6.94, 7.19, 6.67, 5.28, 5.45, 6.9, 6.96, 7.96, 8.15, 8.85, 10.79, 9.17, 7.78, 7.44, 7.98, 8.5, 9.42, 9.31, 8.86, 6.78, -5.4, -11.3, -8.53, -4.24, -2.38, -3.68, -4.4, -5.46, -8.94, -8.33, -7.63, -8.94, -8.48, -7.6, -7.81, -9.27, -10.52, -9.22, -7.44, -2.28, 4.8, 6.14, 4.2, 2.57, 13.88, 14.03, 14.47, 14.75, 14.75, 14.75, 15.2, 15.05, 14.6, 13.44, 11.98, 10.65, 11.62, 11.18, 10.73, 11.62, 11.62, 12.07, 11.71, 12.07, 12.52, 11.18, 10.73, 10.4, 10.41, 10.96, 11.06, 11.18, 11.18, 9.6, 9.2, 8.72, 9.67, 10.62, 11.18, 10.75, 10.27, 11.26, 14.38, 18.33, 19.03, 16.02, 12.37, 10.3, 9.17, 7.24, 3.82, 0.0, 0.0, 0.0, 3.14, 3.14, 3.96, 8.85, 6.94, 7.19, 5.8, 6.0, 6.0, 7.11, 8.54, 9.17, 9.88, 10.37, 10.18, 9.48, 8.05, 8.38, 8.91, 10.31, 11.19, 11.91, 12.38, 12.02, 7.69, -10.96, -11.55, -8.22, -3.93, -5.15, -8.8, -8.4, -8.49, -7.6, -6.32, -8.06, -8.85, -9.2, -10.99, -12.11, -10.75, -7.13, 0.0, 2.6, 5.63, 5.86, 2.83, 1.68, 13.88, 13.28, 14.03, 14.55, 14.75, 14.75, 15.2, 14.75, 14.6, 13.75, 11.71, 9.97, 11.18, 10.73, 11.18, 11.18, 11.62, 12.07, 11.71, 11.87, 12.52, 12.07, 13.41, 12.96, 12.07, 12.07, 11.62, 11.18, 11.18, 11.18, 8.91, 7.33, 6.3, 7.54, 13.15, 12.72, 10.79, 9.8, 13.61, 18.78, 15.87, 14.11, 11.44, 10.73, 10.41, 10.41, 9.5, 8.85, 7.51, 7.51, 7.24, 8.85, 8.85, 8.85, 7.19, 7.19, 5.8, 4.81, 7.44, 7.79, 9.17, 10.41, 11.2, 11.8, 11.53, 11.17, 9.8, 10.12, 10.3, 9.8, 9.49, 10.32, 11.25, 11.14, 10.03, 6.35, -10.52, -10.73, -5.7, -6.7, -9.39, -8.77, -8.49, -7.6, -7.07, -8.67, -11.12, -13.02, -13.2, -12.89, -10.12, 0.0, 0.0, 5.36, 6.64, 4.2, 2.95, 2.0, 13.28, 13.28, 13.57, 14.55, 14.6, 14.75, 14.75, 14.75, 14.3, 13.72, 11.71, 9.54, 10.52, 10.73, 12.07, 11.18, 12.07, 12.52, 12.52, 11.2, 11.6, 12.79, 12.65, 15.49, 15.2, 14.47, 14.99, 14.3, 12.96, 10.58, 10.73, 8.91, 8.43, 8.43, 10.79, 13.86, 12.27, 9.8, 9.8, 13.41, 13.57, 12.96, 12.45, 11.5, 12.27, 10.23, 9.77, 9.88, 9.16, 10.41, 9.62, 9.16, 9.5, 8.85, 7.51, 4.1, 4.1, 4.1, 3.14, 7.78, 11.2, 11.34, 12.74, 12.79, 12.27, 11.64, 11.07, 10.3, 9.48, 6.73, 5.63, 5.34, 5.83, 5.12, 5.12, 6.16, 0.0, -9.75, -9.83, -8.8, -8.94, -9.83, -10.28, -10.14, -10.41, -12.07, -14.11, -14.7, -14.65, -11.53, 0.0, 0.0, 3.8, 6.79, 6.32, 3.52, 2.19, 1.16, 12.87, 13.28, 13.57, 13.57, 14.6, 14.75, 14.75, 14.75, 14.3, 13.28, 11.09, 9.54, 10.08, 11.18, 12.52, 11.18, 12.07, 12.96, 12.96, 13.41, 9.48, 6.0, 6.0, 11.06, 14.9, 14.75, 13.99, 16.09, 14.31, 13.41, 11.84, 11.84, 12.27, 12.52, 11.18, 12.52, 5.8, 6.71, 6.97, 9.67, 12.96, 12.39, 16.09, 12.01, 11.38, 10.12, 9.08, 9.08, 10.04, 10.99, 9.3, 9.66, 8.85, 8.85, 7.82, 3.96, 0.0, 0.0, 0.0, 8.53, 11.53, 12.79, 13.32, 13.11, 12.51, 12.52, 11.2, 9.27, 5.46, 1.53, 0.0, 0.0, 0.0, -0.92, 0.0, 0.0, 1.95, 1.77, 0.0, -3.47, -13.99, -12.07, -11.18, -11.62, -12.07, -13.36, -14.07, -14.55, -11.53, 0.0, 2.71, 4.22, 6.8, 6.79, 5.31, 2.39, 1.16, 1.28, 12.87, 12.27, 12.79, 13.75, 14.6, 14.64, 14.75, 14.75, 14.3, 12.96, 11.51, 11.53, 12.96, 12.96, 12.52, 12.52, 12.96, 13.41, 13.41, 13.41, 13.41, 13.41, 12.39, 10.12, 10.79, 7.9, 6.95, 12.39, 15.65, 14.3, 11.53, 12.65, 13.59, 13.86, 8.85, 0.0, 0.0, 0.0, 0.0, 5.7, 9.17, 14.75, 10.43, 5.6, 6.45, 6.98, 8.85, 11.16, 10.41, 9.88, 10.3, 9.16, 8.53, 8.53, 7.54, 6.45, 0.0, -8.22, 0.0, 11.62, 11.62, 13.37, 12.63, 12.87, 12.47, 12.16, 12.09, 9.22, 5.5, 0.0, -3.12, -3.25, -3.47, -4.16, -3.47, -3.22, -1.08, 0.0, 0.0, 0.0, 0.0, -14.3, -10.73, -11.55, -11.57, -12.07, -12.58, -5.8, 3.39, 4.4, 4.96, 6.7, 6.51, 5.69, 2.97, 1.14, 0.0, 0.0, 11.88, 12.39, 12.79, 13.15, 14.31, 14.64, 14.75, 14.75, 14.3, 12.96, 12.52, 12.96, 11.95, 13.28, 13.86, 13.41, 14.3, 14.75, 13.99, 13.41, 12.96, 12.96, 13.86, 14.3, 13.57, 10.4, 6.64, 9.6, 13.99, 13.88, 10.43, -0.0, -0.0, -0.0, 0.0, 7.9, 0.0, 0.0, 0.0, 4.1, 7.19, 9.17, 3.68, 3.25, 2.49, 6.71, 7.26, 8.53, 9.17, 8.44, 8.15, 9.16, 8.82, 8.22, 6.97, 3.68, 0.0, -11.62, 11.62, 11.51, 12.96, 14.3, 14.51, 12.93, 12.42, 11.95, 10.54, 9.68, 6.2, 0.0, -6.67, -7.63, -7.1, -6.24, -5.63, -4.99, -5.64, -4.72, -3.47, 0.0, 15.59, 13.76, -13.01, -10.52, -10.08, -8.18, 0.0, 4.6, 4.6, 4.96, 6.7, 7.07, 5.06, 2.97, 0.0, 0.0, 0.0, 0.0, 12.39, 12.39, 12.79, 13.56, 14.31, 14.31, 14.64, 14.75, 14.3, 13.41, 12.96, 13.67, 13.72, 13.72, 13.88, 14.3, 15.65, 14.53, 13.42, 14.57, 16.91, 17.43, 16.99, 14.47, 14.75, 12.3, 8.55, 8.55, 12.3, 13.86, 9.17, -0.0, -0.0, -0.0, -0.0, 12.07, 5.2, 5.2, 3.82, 6.2, 8.58, 7.44, 3.68, 0.0, 0.0, 4.6, 6.44, 6.71, 6.71, 6.98, 9.86, 10.8, 10.99, 11.21, 10.8, 11.2, -11.6, -8.53, 8.53, 11.35, 13.81, 14.75, 14.07, 13.86, 12.74, 11.2, 11.38, 11.59, 10.61, 7.96, 2.45, -7.19, -10.69, -10.12, -8.66, -7.95, -7.96, -8.53, -8.85, 11.99, 15.2, 14.39, 10.75, 0.0, 0.0, 2.1, 3.61, 2.58, 4.4, 3.8, 0.0, 0.0, 0.0, -3.39, -2.19, -1.5, 0.0, 0.0, 12.39, 12.39, 13.15, 13.56, 13.81, 14.4, 14.64, 14.64, 14.3, 13.41, 13.41, 13.86, 14.6, 14.16, 12.72, 11.87, 11.62, 13.19, 11.38, 10.61, 9.92, 15.78, 15.65, 15.61, 13.01, 12.96, 11.87, 6.44, 10.6, 10.28, 10.73, 11.62, 11.62, 9.83, 0.0, 0.0, 4.6, 5.4, 6.94, 7.44, 8.31, 6.0, 3.82, 0.0, 0.0, 7.81, 10.41, 10.18, 10.41, 10.96, 11.88, 12.39, 12.96, 13.49, 13.11, 13.59, 14.3, -0.0, 8.85, 11.45, 14.25, 14.3, 14.31, 13.56, 12.9, 13.02, 14.03, 15.99, 17.38, 16.44, 13.35, 10.63, 0.0, -12.3, -11.26, -10.3, -9.17, -13.41, 0.0, 13.41, 13.86, 12.45, 8.85, 7.32, 6.08, 5.8, 3.68, 2.13, 2.28, 0.0, -9.83, -9.6, -9.2, -7.9, -3.98, -3.19, -1.45, 0.0, 12.39, 12.39, 13.15, 13.81, 13.81, 14.4, 14.4, 14.19, 14.19, 13.86, 13.86, 14.16, 14.6, 14.61, 15.04, 14.42, 13.28, 12.45, 9.17, 6.9, 9.48, 12.45, 13.41, 13.41, 12.89, 12.72, 12.45, 13.15, 12.07, 9.83, 10.73, 11.62, 11.62, 11.18, 10.28, 9.83, 7.27, 10.0, 8.22, 6.7, 8.85, 5.6, 5.4, 7.27, 8.8, 9.83, 10.28, 10.73, 11.18, 11.06, 10.68, 11.14, 12.04, 12.49, 14.07, 14.23, 13.19, 13.58, 11.62, 11.28, 13.8, 13.33, 13.15, 12.72, 13.53, 13.88, 14.99, 17.59, 19.08, 18.55, 16.74, 13.41, 11.3, 0.0, -10.8, -12.52, -0.0, 10.12, 13.41, 10.41, 9.67, 9.3, 7.28, 6.0, 7.96, 7.93, 5.63, 3.96, 1.76, -3.11, -8.94, -10.28, -10.73, -8.93, -6.44, -3.82, 0.0, 3.98, 12.39, 12.39, 12.74, 13.39, 13.81, 13.57, 13.57, 13.96, 14.22, 14.19, 14.19, 14.19, 14.6, 14.61, 15.47, 15.47, 15.27, 13.03, 11.52, 8.94, 10.12, 13.28, 14.75, 15.65, 15.49, 15.04, 13.15, 13.15, 13.15, 12.79, 11.62, 11.62, 12.07, 10.73, 10.28, 9.83, 9.39, 9.75, 7.27, 7.59, 3.68, 3.53, 5.0, 7.9, 9.83, 9.83, 8.49, 9.83, 10.73, 10.73, 10.73, 10.73, 13.41, 13.86, 12.52, 10.88, 10.8, 11.35, 12.5, 11.18, 12.45, 13.31, 13.28, 13.31, 12.47, 12.03, 12.07, 12.96, 13.67, 10.86, 10.98, 10.65, 9.8, 8.22, -0.0, 6.6, 15.65, 14.75, 11.52, 10.43, 8.59, 7.28, 6.08, 5.31, 6.44, 5.62, 5.73, 5.46, 4.62, 3.25, -3.11, -10.28, -10.28, -10.18, -7.59, -2.82, 2.49, 6.44, 12.39, 12.74, 12.74, 13.39, 13.39, 13.57, 13.57, 13.57, 13.96, 14.22, 14.22, 14.64, 14.31, 14.75, 15.07, 15.2, 14.79, 14.79, 12.57, 9.77, 10.75, 14.11, 15.65, 16.09, 16.09, 16.54, 15.87, 14.84, 13.59, 13.99, 13.67, 12.52, 12.07, 10.73, 10.28, 9.83, 10.28, 8.4, 7.9, 4.6, 4.8, 5.2, 4.8, 10.18, 9.11, 8.94, 8.94, 8.94, 8.94, 9.83, 10.28, 10.28, 9.83, 0.0, 0.0, 0.0, 9.33, 8.93, 9.92, 11.2, 11.18, 11.62, 11.98, 11.98, 11.98, 12.07, 12.07, 11.55, 9.32, 8.22, 9.17, 10.18, 9.17, 6.87, 13.86, 14.84, 16.09, 14.53, 12.82, 12.11, 10.22, 8.31, 6.56, 4.68, 2.23, 2.45, 3.94, 4.75, 6.09, 6.0, 5.21, 0.0, -10.28, -7.27, 0.0, 6.2, 7.9, 7.9, 12.39, 12.74, 12.74, 13.39, 13.39, 13.57, 13.57, 13.57, 13.96, 13.96, 14.4, 14.4, 14.4, 14.23, 14.65, 14.79, 15.2, 15.19, 14.13, 11.7, 11.38, 14.94, 16.09, 16.54, 16.54, 16.54, 16.54, 14.94, 13.42, 14.11, 14.99, 15.2, 13.86, 11.62, 10.28, 8.94, 9.83, 9.83, 10.0, 7.59, 7.27, 7.59, 7.59, 8.18, 8.91, 8.49, 8.49, 8.49, 8.49, 8.49, 8.94, 8.94, 6.32, 0.0, 0.0, 0.0, 0.0, 6.95, 8.22, 9.08, 9.45, 10.58, 10.52, 10.52, 10.08, 10.73, 9.39, 10.58, 10.27, 10.35, 10.91, 11.11, 9.12, 5.72, 8.58, 15.2, 15.58, 13.34, 11.76, 11.53, 10.47, 9.52, 8.18, 6.1, 4.13, 1.39, 0.0, 2.49, 5.21, 5.52, 5.76, 3.11, 5.7, 6.17, 4.6, 6.44, 7.9, 7.9, 12.39, 12.74, 13.15, 12.98, 12.98, 13.57, 13.57, 13.99, 13.7, 13.96, 14.4, 14.4, 14.84, 14.42, 14.65, 14.65, 14.38, 15.2, 14.13, 12.01, 11.7, 14.94, 15.93, 15.87, 16.09, 16.09, 16.09, 14.39, 12.87, 14.79, 16.66, 16.99, 16.09, 14.3, 8.67, 8.67, 9.39, 10.73, 7.27, 7.27, 7.59, 8.0, 8.8, 7.07, 8.91, 8.94, 8.94, 8.49, 8.06, 8.0, 8.0, 8.4, 6.64, 4.2, 4.2, 0.0, 3.11, 3.25, 5.0, 8.22, 9.58, 9.2, 8.18, 6.95, 8.8, 8.49, 8.94, 8.94, 10.28, 10.21, 9.8, 7.93, 6.31, 4.58, 7.58, 14.84, 14.42, 12.11, 10.3, 8.65, 8.83, 8.29, 7.23, 6.2, 5.48, 4.25, 0.0, 2.1, 4.8, 5.21, 4.87, 5.64, 5.72, 6.24, 6.5, 6.87, 7.9, 7.9, 12.74, 12.74, 13.15, 13.39, 12.98, 13.15, 13.57, 13.57, 14.13, 14.13, 14.4, 14.84, 14.42, 14.42, 13.89, 14.23, 14.65, 14.79, 13.76, 11.7, 11.38, 14.94, 15.04, 14.42, 15.18, 16.09, 16.54, 15.69, 13.76, 14.51, 16.91, 17.88, 17.88, 16.09, 12.52, 8.24, 8.48, 10.28, 10.73, 10.28, 9.83, 9.39, 6.01, 6.01, 8.0, 8.4, 8.0, 8.0, 6.64, 6.64, 6.64, 6.95, 6.95, 5.46, 5.46, 5.46, 5.46, 7.27, 7.59, 7.9, 7.9, 7.59, 7.27, 5.46, 6.64, 8.49, 6.7, 6.01, 4.4, 3.53, 4.12, 3.83, 3.16, 3.18, 7.2, 14.71, 13.2, 9.81, 7.57, 6.16, 4.96, 4.52, 3.36, 3.73, 4.01, 3.82, 3.61, 4.6, 3.98, 5.2, 6.2, 5.28, 5.46, 6.24, 7.44, 7.9, 7.36, 7.36, 12.74, 12.74, 12.74, 13.15, 12.98, 13.15, 13.96, 13.57, 13.99, 13.99, 14.4, 14.42, 14.84, 14.84, 14.42, 15.19, 13.81, 13.99, 13.02, 11.87, 13.99, 15.87, 15.49, 15.36, 14.9, 16.54, 13.15, 15.19, 12.33, 14.39, 17.43, 17.88, 17.53, 17.43, 15.65, 12.35, 9.54, 8.91, 9.83, 11.18, 7.27, 7.27, 0.0, 6.95, 6.95, 8.8, 6.95, 6.64, 4.2, 6.64, 6.95, 6.95, 3.11, 3.11, 5.46, 7.27, 6.95, 8.58, 8.94, 7.9, 6.44, 4.8, 5.7, 6.32, 8.94, 8.06, 6.01, 6.32, -9.83, -8.53, -1.38, 0.77, 2.38, 3.25, 5.47, 7.4, 3.79, 2.15, 2.72, 1.94, 0.0, 0.0, 0.0, 0.0, 0.97, 1.02, 2.33, 3.92, 4.4, 5.52, 6.5, 4.92, 4.6, 6.5, 8.53, 8.22, 6.97, 6.97, 12.03, 12.74, 12.74, 12.74, 12.98, 13.15, 13.96, 13.96, 13.99, 13.99, 13.99, 14.42, 14.84, 14.84, 14.3, 13.59, 13.19, 13.81, 13.42, 14.11, 15.19, 15.27, 15.47, 17.1, 15.36, 14.79, 11.7, 11.38, 13.59, 15.77, 17.43, 17.2, 17.1, 17.1, 16.99, 15.2, 12.96, 11.62, 10.28, 6.01, 0.0, 0.0, 0.0, 2.97, 2.83, 4.8, 6.95, 0.0, 0.0, 4.2, 4.2, 2.97, 2.97, 6.64, 6.32, 7.81, 7.59, 6.95, 6.17, 4.8, 4.6, 2.49, 3.11, 4.4, 8.49, 7.6, 7.15, 8.91, 0.0, -2.28, 0.0, 1.53, 3.22, 3.29, 0.85, -3.56, -7.71, -7.88, -2.88, -2.01, -2.15, -3.18, -3.32, -2.4, -1.2, 0.0, 2.49, 5.1, 5.54, 5.95, 4.8, 3.34, 4.32, 6.45, 7.73, 7.24, 6.45, 6.45, 12.03, 12.03, 12.74, 12.74, 12.98, 13.15, 13.53, 13.96, 14.4, 14.42, 13.99, 14.42, 14.84, 14.3, 14.3, 13.99, 13.19, 13.56, 11.6, 13.03, 14.57, 13.76, 14.79, 14.39, 14.57, 12.01, 9.66, 12.01, 16.54, 17.7, 17.88, 17.43, 17.2, 17.1, 16.99, 16.54, 14.75, 12.96, 11.62, 7.27, 4.2, 0.0, 0.0, 0.0, 2.97, 0.0, 0.0, 0.0, 0.0, 0.0, 0.0, 4.0, 6.32, 7.81, 8.18, 6.32, 5.7, 5.7, 5.95, 2.39, 0.0, 0.0, 0.0, 9.83, 8.48, 8.0, 7.81, 9.83, 9.6, 7.26, 6.67, 6.17, 7.27, 4.21, -2.19, -9.42, -13.7, -12.52, -10.83, -7.0, -4.6, -3.52, -2.5, -1.42, 0.0, 0.0, 3.39, 4.88, 3.82, 4.18, 2.95, 3.04, 5.08, 6.16, 7.02, 5.86, 5.2, 5.2, 12.03, 12.03, 12.03, 12.03, 12.98, 13.15, 13.53, 13.96, 14.4, 14.42, 14.42, 14.42, 14.42, 14.3, 14.3, 13.99, 13.59, 12.81, 12.27, 11.7, 12.01, 13.76, 13.39, 13.39, 13.26, 12.64, 12.33, 14.79, 15.9, 16.86, 17.3, 17.43, 17.2, 17.2, 16.99, 16.99, 15.65, 13.44, 11.87, 7.9, 7.27, 5.46, 2.97, 2.97, 2.83, 2.54, 0.0, 0.0, 0.0, 0.0, 3.8, 3.8, 6.01, 7.44, 7.44, 6.95, 6.95, 7.59, 5.95, 0.0, 0.0, 0.0, 0.0, 9.39, 9.21, 8.72, 8.72, 9.54, 10.28, 11.4, 11.5, 11.93, 12.73, 10.74, -11.71, -13.94, -16.74, -16.95, -15.8, -12.11, -7.82, -3.58, 0.0, 0.0, 0.0, 0.0, 2.02, 1.93, 1.28, 2.94, 3.53, 5.4, 5.6, 5.86, 5.2, 4.72, 4.72, 4.72, 12.03, 12.03, 12.03, 12.03, 12.98, 12.98, 13.96, 13.96, 14.4, 14.42, 14.42, 14.42, 14.84, 14.3, 14.3, 13.99, 13.59, 12.81, 10.75, 11.7, 12.01, 13.39, 12.65, 12.65, 13.76, 14.51, 15.99, 16.76, 16.86, 15.61, 15.9, 16.37, 16.54, 16.31, 16.54, 16.54, 15.78, 14.31, 11.6, 9.67, 7.59, 5.7, 4.4, 4.0, 3.6, 1.84, 0.0, 0.0, 0.0, 6.01, 5.69, 6.01, 6.01, 6.01, 6.32, 7.44, 7.81, 9.2, 8.93, 8.94, -8.94, -8.94, 8.4, 8.67, 8.3, 8.91, 9.21, 9.39, 10.28, 9.97, 11.28, 12.35, 10.56, 7.6, -6.98, -9.33, -14.26, -16.22, -17.14, -16.85, -13.03, -7.1, -1.72, 0.0, 0.0, 0.0, 0.0, 0.0, 4.32, 6.7, 6.08, 6.21, 5.78, 4.99, 4.32, 4.72, 3.68, 3.68, 12.03, 12.03, 12.03, 12.03, 12.03, 12.98, 13.53, 13.96, 14.4, 14.42, 14.42, 14.84, 14.3, 14.3, 14.3, 13.99, 13.27, 12.0, 12.02, 11.38, 11.7, 14.13, 13.97, 12.81, 12.65, 14.36, 16.02, 16.91, 16.76, 16.33, 15.27, 15.87, 16.09, 15.87, 16.09, 16.09, 14.94, 13.59, 10.73, 8.22, 7.27, 6.95, 4.6, 4.6, 4.0, 3.4, 0.0, 0.0, 0.0, 4.0, 4.0, 3.8, 6.01, 6.01, 6.01, 6.01, 7.63, 8.67, 9.55, 9.97, -0.0, -0.0, 6.01, 8.67, 8.3, 8.91, 9.83, 10.73, 9.83, 9.54, 7.27, 0.0, 4.95, 7.31, 7.4, -13.19, -12.52, -12.42, -14.68, -15.61, -15.87, -12.79, -7.69, -4.71, -3.14, -3.19, 0.0, 5.2, 7.24, 9.62, 7.95, 7.26, 6.33, 5.72, 4.81, 3.68, 4.08, 4.08, 11.53, 11.53, 11.53, 11.53, 12.03, 12.03, 13.53, 13.96, 14.4, 14.42, 14.42, 14.42, 14.3, 14.3, 14.3, 13.27, 13.27, 12.37, 11.68, 12.36, 12.36, 14.75, 14.75, 14.36, 13.58, 14.38, 15.61, 16.76, 16.54, 16.12, 16.12, 16.54, 15.65, 15.65, 16.09, 15.78, 14.39, 12.52, 11.44, 8.53, 7.27, 5.46, 4.4, 4.6, 4.4, 2.28, 1.58, 1.67, 2.17, 1.84, 1.75, 0.0, 2.69, 3.6, 3.8, 6.01, 8.49, 7.6, 8.94, 8.8, 6.95, 8.49, 8.0, 8.91, 8.72, 9.21, 10.08, 10.28, 10.28, -0.0, -9.3, -3.73, 2.22, 8.94, 9.0, 7.14, -4.45, -16.99, -14.75, -12.07, -14.75, -14.9, -12.37, -9.12, -7.44, -5.0, 2.71, 9.3, 10.73, 11.44, 10.94, 8.22, 7.28, 5.6, 4.87, 3.53, 4.4, 4.4, 11.53, 11.53, 11.53, 11.53, 11.53, 12.03, 12.98, 14.22, 14.4, 14.4, 14.42, 14.42, 14.3, 14.3, 14.3, 13.27, 13.27, 12.73, 12.02, 12.02, 12.73, 13.97, 14.75, 14.75, 14.36, 14.79, 14.79, 15.61, 15.59, 16.54, 16.76, 16.99, 16.54, 16.54, 16.09, 15.61, 14.39, 11.38, 11.06, 9.48, 7.9, 5.7, 4.4, 4.4, 4.6, 2.49, 1.93, 1.67, 1.75, 0.0, 0.0, 0.0, 0.0, 0.0, 3.8, 6.01, 8.05, 8.05, 7.2, 8.0, 5.46, 4.6, 8.0, 9.39, 8.91, 9.11, 9.97, 10.41, 9.75, -0.0, -9.6, -2.54, 2.72, 7.17, 10.65, 12.21, 10.2, -15.02, -15.87, -12.52, -13.41, -15.14, -13.89, -11.64, -8.53, 3.82, 9.66, 9.42, 10.41, 11.44, 10.79, 8.53, 7.6, 6.36, 5.0, 5.0, 4.54, 4.54, 11.53, 11.53, 11.53, 11.53, 11.53, 12.03, 12.74, 13.44, 14.22, 14.31, 14.23, 14.23, 13.99, 13.59, 13.99, 13.27, 12.73, 12.73, 12.02, 12.02, 12.73, 13.58, 13.97, 14.36, 14.36, 15.2, 14.79, 15.2, 15.61, 15.61, 16.82, 16.99, 16.99, 16.99, 16.54, 16.05, 14.79, 13.76, 13.76, 11.06, 9.8, 8.53, 6.44, 4.4, 3.82, 2.02, 2.02, 0.0, 0.0, 0.0, 0.0, 0.0, -1.14, 0.0, 0.0, 3.4, 7.2, 7.21, 3.97, 3.4, 6.64, 3.49, 5.95, 7.44, 9.83, 9.39, 10.73, 10.28, 9.83, 0.0, -7.9, -4.32, 0.0, 4.95, 9.43, 11.84, 11.16, 3.98, -14.94, -11.46, -12.52, -14.75, -14.16, -12.71, 0.0, 7.24, 9.17, 9.84, 10.19, 10.19, 9.5, 8.1, 6.9, 6.79, 6.36, 5.47, 4.68, 4.68, 11.53, 11.53, 11.53, 11.53, 11.53, 11.53, 12.03, 13.44, 14.19, 13.88, 13.81, 14.23, 13.59, 13.59, 13.59, 12.89, 12.73, 12.73, 12.02, 12.02, 12.73, 12.73, 12.73, 13.58, 13.97, 14.79, 15.61, 15.61, 16.05, 16.05, 16.05, 16.41, 16.99, 16.99, 16.76, 16.22, 14.79, 15.19, 15.19, 14.39, 10.43, 9.17, 6.71, 4.4, 4.6, 3.65, 2.02, 0.0, 0.0, 0.0, -1.47, -1.4, -1.4, 0.0, 0.0, 3.4, 7.21, 7.6, 5.95, 2.4, 0.0, 2.83, 4.4, 5.21, 8.91, 10.84, 10.73, 0.0, -9.83, -10.28, -7.9, -5.4, -3.04, 0.0, 3.8, 4.67, 4.9, 5.65, -14.75, -7.9, -10.73, -14.22, -15.05, -9.48, 3.82, 6.7, 9.17, 10.09, 9.48, 9.17, 8.01, 6.63, 6.43, 6.48, 6.2, 6.07, 5.1, 5.1, 11.53, 11.53, 11.53, 11.53, 11.53, 11.53, 12.03, 13.39, 14.19, 14.19, 13.81, 14.23, 14.65, 13.99, 13.99, 12.89, 12.37, 10.75, 11.68, 11.68, 12.73, 12.73, 12.73, 13.58, 14.38, 15.18, 15.27, 15.71, 16.15, 16.05, 16.05, 16.41, 16.41, 16.37, 16.31, 16.22, 15.36, 15.77, 15.77, 14.79, 12.52, 9.48, 8.22, 5.46, 6.64, 5.06, 4.8, 2.82, 0.0, 0.0, 0.0, 0.0, 1.67, 2.99, 4.02, 5.75, 7.21, 7.6, 7.15, 5.37, -0.0, 6.32, 2.97, 6.64, 8.55, 9.97, 10.41, 10.28, -9.83, -10.28, -7.9, -2.45, -2.72, -3.41, -5.14, -3.41, -0.78, 1.59, 1.23, -4.81, -12.07, -9.48, 0.0, 5.31, 6.08, 6.21, 7.43, 7.69, 7.13, 7.44, 6.87, 6.87, 5.8, 5.8, 5.63, 5.45, 5.33, 5.33, 11.53, 11.53, 11.53, 11.53, 11.53, 11.53, 11.53, 13.39, 13.88, 13.88, 13.88, 13.97, 13.97, 13.99, 14.39, 13.27, 12.37, 10.75, 11.68, 11.68, 12.73, 12.73, 13.58, 14.38, 15.18, 15.27, 14.84, 15.27, 15.71, 15.61, 15.71, 15.71, 15.71, 15.97, 16.37, 16.31, 16.31, 15.36, 15.77, 15.77, 12.87, 11.44, 10.01, 7.87, 5.69, 5.9, 5.4, 7.44, 7.44, 8.85, 6.71, 5.36, 6.01, 4.75, 5.24, 6.0, 6.79, 7.06, 7.6, 7.15, 7.15, 0.0, 3.8, 8.4, 8.91, 9.39, 9.83, 10.18, 8.4, -9.83, -10.6, -2.93, 0.0, -0.99, -5.64, -7.26, -5.01, -0.78, 1.53, 0.0, -1.73, 0.0, 3.81, 5.18, 5.69, 6.05, 5.81, 4.97, 5.33, 5.33, 6.9, 6.0, 5.62, 5.11, 4.94, 4.86, 4.94, 4.94, 11.16, 11.16, 11.53, 11.53, 10.82, 10.65, 11.53, 13.39, 13.88, 14.31, 14.31, 13.15, 13.97, 13.2, 13.58, 12.73, 12.02, 11.06, 11.06, 12.02, 12.02, 13.02, 13.58, 14.38, 15.18, 15.55, 15.12, 14.47, 14.84, 15.27, 15.71, 15.27, 15.27, 15.18, 15.93, 15.93, 16.31, 15.69, 15.36, 14.57, 13.23, 12.16, 10.37, 8.58, 7.15, 5.7, 5.8, 7.36, 8.58, 8.05, 5.2, 3.49, 2.49, 4.19, 4.54, 4.6, 6.64, 7.45, 7.6, 7.15, 7.15, 6.01, 6.01, 6.32, 6.32, 8.49, 7.6, 9.33, 7.27, 0.0, -8.8, -7.59, 1.77, 3.07, 0.0, -4.66, -6.44, -3.18, 0.0, 0.0, 0.0, 0.0, 5.11, 6.17, 5.57, 5.29, 4.56, 4.53, 3.81, 4.24, 4.58, 4.58, 4.24, 3.56, 4.31, 4.31, 4.17, 4.17, 11.16, 11.16, 10.3, 9.8, 9.8, 9.8, 11.53, 13.39, 13.39, 13.81, 13.56, 13.56, 13.56, 13.58, 13.58, 12.02, 12.02, 10.3, 11.38, 12.57, 12.57, 14.39, 14.38, 15.18, 15.27, 15.57, 15.12, 14.23, 15.93, 14.4, 15.27, 15.71, 15.71, 15.18, 15.18, 15.93, 15.47, 15.69, 15.69, 14.18, 14.18, 13.42, 10.82, 7.9, 6.17, 5.0, 4.81, 7.59, 5.15, 4.65, 2.02, 1.58, 1.73, 2.12, 2.6, 4.09, 5.2, 7.15, 7.6, 7.15, 6.0, 6.8, 3.8, 0.0, 0.0, 0.0, 0.0, 0.0, 0.0, 0.0, 0.0, 0.0, 0.0, 1.78, 1.82, 0.0, -3.47, -3.04, -1.43, 0.0, 1.06, 4.88, 8.21, 5.98, 4.54, 4.01, 3.96, 4.06, 2.81, 2.92, 3.41, 3.73, 2.32, 2.92, 3.73, 3.73, 3.6, 3.6, 10.3, 10.3, 10.3, 9.8, 9.8, 9.8, 11.53, 13.15, 13.39, 13.81, 13.56, 13.56, 13.56, 13.56, 12.02, 12.02, 11.06, 9.77, 8.05, 11.38, 12.87, 13.8, 14.79, 15.18, 14.84, 15.12, 15.12, 14.23, 13.53, 15.04, 13.99, 14.84, 15.61, 15.61, 15.61, 15.61, 15.47, 15.69, 14.79, 14.79, 14.18, 13.8, 11.17, 9.42, 6.44, 5.2, 5.8, 6.2, 6.2, 4.32, 1.84, 1.75, 2.83, 5.69, 7.15, 6.26, 5.81, 5.36, 6.26, 6.26, 5.2, 5.37, 6.32, 0.0, 0.0, 0.0, 0.0, -8.49, -4.4, 0.0, 0.0, 4.8, 0.0, -3.1, 0.0, 1.02, 0.0, 0.0, 0.0, 0.96, 2.89, 4.73, 4.62, 4.01, 3.18, 2.94, 2.83, 2.72, 1.89, 2.32, 2.72, 2.93, 1.25, 1.17, 1.83, 2.62, 2.99, 2.99, 10.3, 10.3, 9.48, 9.48, 9.8, 10.65, 11.53, 12.42, 13.15, 13.56, 13.56, 13.97, 13.56, 13.56, 11.68, 10.02, 8.68, 8.05, 9.39, 9.66, 12.87, 14.18, 14.79, 15.07, 14.84, 15.12, 15.12, 14.66, 14.4, 14.31, 13.81, 14.23, 15.18, 15.18, 15.61, 15.61, 15.47, 14.79, 14.79, 14.79, 14.79, 14.79, 11.87, 10.12, 8.22, 6.97, 8.85, 7.69, 6.2, 5.4, 3.65, 2.28, 4.2, 8.94, 8.05, 0.0, 6.71, 6.26, 5.36, 5.81, 7.6, 5.69, 5.69, 0.0, 0.0, 0.0, 0.0, 0.0, -6.64, -4.6, 0.0, 0.0, 0.0, -6.0, -2.79, 0.99, 3.6, 2.98, 1.83, 1.58, 1.54, 1.83, 2.34, 1.21, 1.13, 1.65, 1.55, 1.39, 1.96, 1.38, 1.98, 1.98, 0.0, 0.0, 0.0, 1.65, 1.6, 1.6, 9.48, 9.48, 9.48, 9.48, 9.8, 10.65, 11.53, 12.42, 12.81, 12.81, 13.2, 13.97, 13.59, 13.19, 12.27, 8.43, 6.8, 5.64, 6.8, 7.0, 12.87, 13.8, 14.79, 15.07, 15.27, 14.9, 15.11, 14.4, 14.31, 14.75, 14.23, 14.23, 14.75, 14.75, 15.18, 15.18, 15.47, 14.79, 15.2, 15.2, 15.2, 14.39, 13.59, 10.47, 8.53, 8.22, 8.85, 9.48, 7.44, 5.8, 6.44, 7.27, 7.81, 8.0, 7.6, 6.8, 5.06, 4.74, 5.21, 5.2, 3.48, 5.69, 5.69, 5.69, 6.01, 0.0, 0.0, 0.0, -6.32, -6.64, -3.11, 0.0, -2.54, -4.58, -2.88, 1.78, 5.96, 5.94, 4.01, 0.82, 0.0, 0.0, 0.0, 0.0, 1.23, 1.78, 1.78, 1.3, 1.77, 1.98, 1.91, 2.19, 0.0, 0.0, 0.0, 0.0, 0.93, 0.93, 9.48, 9.48, 9.48, 9.48, 9.8, 10.65, 11.9, 12.42, 12.81, 12.81, 13.2, 12.65, 13.59, 12.27, 12.27, 9.73, 5.99, 4.81, 5.64, 7.0, 11.06, 14.39, 14.79, 15.61, 15.27, 14.84, 14.84, 14.4, 14.31, 14.23, 14.23, 14.23, 14.31, 14.31, 14.31, 14.75, 15.04, 14.38, 14.79, 14.79, 14.79, 14.79, 13.99, 11.5, 8.53, 8.22, 8.53, 9.17, 9.48, 9.17, 9.3, 8.82, 8.43, 7.51, 7.6, 5.69, 6.08, 5.72, 5.75, 5.4, 4.98, 4.46, 5.69, 5.37, 3.6, 4.0, 0.0, 0.0, 0.0, -6.32, -7.59, -2.49, 0.0, -2.63, -2.24, 1.01, 5.09, 7.11, 6.64, 3.39, 0.0, 0.0, 0.0, 0.0, 3.36, 2.63, 3.14, 1.98, 1.91, 1.91, 1.91, 0.0, 0.0, 0.0, 0.0, 0.0, 0.0, 0.0, 9.17, 9.17, 9.48, 9.48, 9.8, 9.8, 10.99, 11.9, 12.81, 12.81, 12.65, 12.65, 12.65, 12.65, 11.52, 9.44, 5.99, 4.81, 2.98, 5.81, 11.06, 14.38, 15.61, 15.61, 15.27, 14.84, 14.23, 13.81, 13.81, 14.23, 14.23, 14.42, 13.99, 14.31, 14.31, 14.31, 14.31, 14.61, 14.38, 14.79, 14.79, 14.79, 13.97, 11.12, 8.03, 7.59, 9.3, 10.01, 10.37, 10.37, 9.66, 9.58, 8.82, 8.43, 7.15, 6.44, 6.08, 6.52, 6.23, 5.81, 5.4, 4.98, 7.2, 6.8, 3.6, 4.0, 0.0, 0.0, 0.0, -4.0, -4.2, 0.0, 0.0, 0.0, -1.47, -2.81, 0.0, 2.45, 3.25, 4.01, 4.66, 3.09, 0.0, 0.0, 3.44, 3.29, 3.29, 1.58, 1.91, 1.98, 0.0, 0.0, -2.37, -1.77, -1.55, -2.37, -2.16, 0.0, 9.17, 9.17, 9.48, 9.48, 9.8, 9.8, 10.99, 11.9, 12.27, 12.27, 12.65, 12.65, 11.87, 11.87, 10.75, 8.18, 7.32, 2.5, 2.5, 7.0, 13.02, 15.18, 15.53, 15.97, 15.18, 14.75, 13.81, 13.56, 14.31, 13.81, 14.23, 13.99, 13.99, 13.99, 14.31, 14.31, 13.88, 14.61, 14.61, 14.38, 14.38, 14.79, 13.56, 10.8, 8.0, 8.24, 8.22, 10.73, 11.5, 11.12, 10.01, 9.3, 8.58, 7.87, 7.15, 6.79, 6.08, 6.08, 6.58, 6.14, 5.7, 5.2, 7.2, 5.06, 0.0, 0.0, 0.0, 0.0, 0.0, 0.0, 0.0, 0.0, 1.98, 2.9, 0.0, -6.8, -8.58, -3.9, -0.77, 2.27, 5.34, 4.58, 2.64, 0.0, 1.43, 2.13, 2.62, 2.16, 0.0, 0.0, 0.0, -2.06, -3.96, -4.93, -4.39, -3.82, -3.47, -2.16, 9.17, 9.17, 9.17, 9.48, 9.8, 9.8, 10.99, 10.99, 12.27, 12.27, 11.68, 10.75, 10.75, 10.75, 10.75, 8.18, 6.6, 4.05, 4.81, 9.49, 14.38, 15.53, 15.65, 15.53, 15.53, 14.61, 14.18, 14.18, 13.75, 13.75, 14.31, 14.31, 13.99, 13.99, 13.57, 13.99, 13.88, 13.88, 14.75, 14.61, 14.38, 14.38, 13.56, 11.09, 8.93, 9.16, 10.65, 11.9, 11.17, 10.82, 9.17, 9.66, 8.58, 8.23, 7.15, 7.6, 7.2, 7.37, 6.94, 6.51, 6.07, 5.64, 4.46, 5.69, 3.6, 0.0, 0.0, 0.0, 0.0, 0.0, 6.32, 4.2, 2.28, 4.24, 5.35, 1.83, -11.06, -9.77, -2.95, 1.48, 4.37, 5.02, 3.58, 0.95, 0.0, 1.08, 1.83, 0.99, 0.0, 0.0, -1.77, -3.96, -5.6, -5.6, -5.6, -5.4, -5.86, -3.47, 9.17, 9.17, 9.17, 9.48, 9.48, 9.8, 10.65, 10.99, 10.99, 11.33, 10.43, 10.43, 10.75, 10.75, 9.22, 8.18, 6.6, 4.05, 4.66, 9.49, 14.61, 15.2, 15.11, 15.53, 15.53, 15.04, 14.18, 14.16, 14.16, 14.19, 14.19, 14.64, 14.31, 14.4, 13.57, 13.57, 13.57, 12.98, 13.39, 13.56, 13.56, 13.97, 12.79, 11.2, 9.67, 10.12, 11.54, 12.02, 12.27, 11.17, 10.82, 10.01, 8.58, 7.87, 8.0, 7.07, 6.7, 7.21, 7.21, 7.15, 6.36, 5.51, 5.37, 5.37, 3.6, 3.6, 0.0, 0.0, 0.0, 7.6, 8.0, 6.64, 2.6, 3.68, 6.51, 7.0, 4.32, -4.17, -3.39, 1.84, 4.94, 6.26, 5.65, 2.81, 0.0, 0.0, 0.0, 0.0, 0.0, -2.32, -3.96, -4.39, -6.21, -6.94, -6.94, -6.4, -7.02, -7.02, 8.01, 8.01, 8.3, 8.3, 8.59, 8.59, 10.65, 10.99, 10.99, 10.12, 10.43, 10.43, 10.43, 9.22, 9.22, 6.6, 5.81, 2.09, 2.09, 10.43, 14.75, 15.11, 15.11, 14.84, 14.75, 14.75, 14.31, 13.88, 14.22, 13.86, 13.77, 13.77, 14.19, 13.96, 13.96, 13.15, 13.15, 12.72, 13.15, 13.39, 13.15, 13.15, 12.39, 11.2, 9.42, 9.48, 10.43, 11.68, 11.9, 10.82, 10.47, 9.66, 7.87, 7.51, 8.0, 7.6, 7.63, 7.63, 8.05, 7.6, 6.79, 6.0, 5.2, 5.69, 5.69, 5.69, 6.01, 3.8, 6.8, 8.06, 8.94, 8.0, 3.39, 1.39, 3.44, 4.89, 7.15, 7.07, 6.11, 6.64, 7.03, 7.91, 7.37, 5.06, 1.55, -1.5, -3.04, -2.13, -2.92, -4.1, -5.18, -5.6, -6.94, -7.51, -7.24, -7.85, -7.85, -7.85, 8.01, 8.01, 8.3, 8.3, 8.59, 8.59, 9.8, 10.65, 10.65, 10.12, 9.16, 9.44, 9.22, 9.22, 9.22, 6.6, 4.05, 2.09, 0.0, 10.43, 14.75, 14.9, 14.9, 14.42, 14.42, 14.42, 14.13, 13.7, 13.59, 13.79, 13.34, 13.33, 13.09, 13.53, 13.96, 12.72, 12.72, 12.25, 12.25, 12.25, 12.39, 12.03, 12.33, 10.8, 9.08, 9.17, 10.99, 10.99, 10.3, 9.77, 9.42, 8.73, 7.51, 7.51, 8.0, 8.0, 7.63, 7.63, 7.63, 8.05, 7.21, 7.21, 6.0, 8.05, 5.69, 7.2, 6.01, 7.07, 7.63, 8.06, 8.94, 8.0, 0.0, 0.0, 0.0, 1.04, 4.16, 8.04, 10.65, 10.39, 8.74, 9.16, 8.98, 7.3, 3.07, -3.56, -6.94, -6.67, -5.8, -5.8, -5.99, -6.44, -6.7, -8.24, -8.53, -7.85, -7.85, -7.85, 6.94, 6.94, 7.19, 7.19, 8.59, 8.59, 9.8, 9.8, 10.12, 9.16, 9.16, 8.18, 8.18, 8.18, 6.6, 6.6, 4.05, 2.09, 0.0, 9.22, 14.23, 14.56, 14.56, 14.56, 14.11, 14.11, 13.7, 13.44, 13.37, 13.19, 13.19, 13.15, 13.15, 13.15, 13.09, 13.09, 12.3, 12.25, 12.25, 12.25, 11.99, 11.99, 11.26, 9.67, 9.3, 9.42, 10.3, 10.3, 10.3, 8.53, 8.73, 8.03, 7.67, 7.15, 7.6, 7.6, 7.63, 7.63, 7.21, 7.63, 7.63, 7.21, 6.79, 5.94, 7.6, 5.69, 6.01, 5.37, 8.06, 7.2, 6.64, 6.01, 0.0, 0.0, 0.0, 0.0, 3.25, 6.24, 9.67, 12.8, 13.25, 12.0, 11.19, 9.6, 5.73, -6.0, -11.26, -8.54, -8.1, -7.18, -7.54, -8.22, -8.15, -8.53, -9.16, -8.22, -8.22, -8.22, 6.94, 6.94, 7.19, 7.19, 8.3, 8.59, 9.48, 9.8, 10.12, 9.16, 7.93, 7.93, 8.18, 6.6, 6.6, 4.66, 2.09, 0.0, 0.0, 0.0, 13.19, 13.89, 14.56, 14.11, 14.11, 14.11, 13.7, 13.44, 13.37, 13.37, 12.94, 12.42, 12.42, 12.42, 12.42, 12.42, 12.3, 11.85, 12.25, 11.85, 11.33, 10.99, 10.99, 9.46, 9.3, 10.04, 9.96, 9.96, 9.96, 8.53, 7.9, 7.68, 6.98, 6.79, 6.44, 7.2, 7.63, 7.63, 7.21, 7.21, 7.6, 7.6, 6.79, 6.36, 5.51, 6.01, 5.69, 3.4, 3.6, 6.01, 0.0, 0.0, 0.0, 0.0, 0.0, 1.58, 3.6, 5.33, 7.68, 10.75, 12.64, 13.85, 12.79, 12.2, 8.83, -4.52, -12.72, -10.09, -9.17, -9.17, -9.42, -8.73, -9.08, -9.27, -8.93, -8.93, -8.93, -8.93, 6.94, 6.94, 7.19, 7.19, 7.44, 9.48, 9.48, 9.8, 8.87, 7.93, 7.93, 7.93, 8.18, 6.6, 6.6, 4.05, 2.09, 0.0, 0.0, 0.0, 12.0, 13.89, 14.11, 14.11, 14.11, 14.11, 13.7, 13.44, 13.02, 13.37, 12.94, 12.42, 12.42, 11.99, 11.99, 11.99, 11.87, 11.87, 11.85, 11.85, 11.33, 10.99, 10.99, 10.24, 9.09, 9.27, 9.62, 9.62, 9.62, 8.22, 7.59, 6.95, 6.98, 6.79, 7.2, 7.2, 7.81, 7.21, 7.63, 7.21, 7.15, 7.15, 6.71, 6.26, 5.81, 8.49, 5.69, 3.6, 3.8, 3.6, 0.0, 0.0, 0.0, 0.0, 2.1, 3.53, 4.24, 5.8, 8.23, 10.09, 11.42, 12.36, 13.67, 13.67, 11.83, 0.0, -13.86, -11.64, -9.96, -10.04, -11.03, -11.28, -10.38, -10.38, -9.58, -10.0, -10.0, -10.0, 6.94, 6.94, 7.19, 7.19, 7.19, 9.48, 9.8, 9.8, 8.87, 7.69, 7.93, 7.1, 6.4, 6.6, 4.05, 2.09, 2.09, 0.0, 0.0, 1.77, 7.1, 12.9, 14.11, 14.11, 14.56, 14.56, 14.13, 13.28, 12.87, 12.87, 12.45, 12.85, 12.42, 11.99, 11.99, 11.56, 11.56, 11.44, 11.44, 11.44, 10.61, 10.61, 10.01, 9.66, 8.49, 9.82, 9.62, 9.62, 9.27, 7.9, 7.59, 7.27, 7.33, 6.32, 7.2, 6.8, 7.37, 7.21, 7.21, 7.21, 7.6, 6.71, 6.26, 5.36, 4.92, 8.05, 5.37, 5.69, 6.01, 5.69, 4.0, 4.0, 0.0, 0.0, 2.49, 3.98, 4.58, 6.4, 8.54, 10.37, 10.94, 11.38, 13.36, 15.17, 14.75, 0.0, -13.46, -12.96, -8.85, -12.07, -12.07, -11.62, -11.18, -10.52, -10.96, -10.38, -10.38, -10.38, 6.94, 6.94, 7.19, 7.19, 7.19, 9.48, 9.8, 9.8, 7.69, 7.93, 7.1, 5.63, 5.81, 5.81, 4.05, 2.09, 0.0, 0.0, 0.0, 1.83, 5.81, 11.8, 13.29, 14.11, 14.56, 14.13, 14.13, 13.7, 12.87, 12.45, 12.45, 12.45, 12.04, 11.62, 11.62, 11.21, 11.03, 11.03, 11.03, 11.44, 10.61, 10.61, 10.61, 9.66, 8.82, 9.5, 9.84, 9.62, 8.93, 7.59, 7.27, 6.95, 6.14, 6.64, 6.79, 7.2, 6.8, 6.79, 6.79, 7.21, 7.6, 6.71, 5.81, 5.36, 4.92, 6.71, 6.0, 6.32, 6.7, 6.01, 6.32, 4.2, 4.2, 3.11, 2.49, 3.98, 5.75, 7.44, 9.5, 10.99, 11.37, 12.09, 13.36, 13.78, 13.91, 7.07, -0.0, 10.79, 11.62, 10.8, -11.62, -11.28, -11.18, -11.18, -11.18, -10.52, -10.52, -10.52, 6.94, 5.6, 5.8, 7.19, 7.19, 9.48, 9.8, 9.8, 7.69, 7.93, 5.63, 5.63, 5.81, 4.05, 4.05, 2.09, 0.0, 0.0, 0.0, 2.09, 5.81, 11.2, 12.89, 13.89, 14.13, 14.13, 14.13, 13.7, 12.87, 12.87, 12.45, 12.45, 12.04, 11.62, 11.62, 11.03, 11.03, 11.03, 11.03, 11.03, 10.24, 10.24, 10.24, 9.66, 9.16, 9.5, 9.84, 8.85, 8.93, 7.59, 7.27, 6.95, 6.14, 6.32, 6.79, 7.2, 7.2, 7.21, 6.79, 6.79, 7.15, 6.26, 5.81, 5.36, 4.92, 6.26, 6.71, 7.15, 7.21, 7.63, 7.6, 6.32, 4.2, 0.0, 0.0, 7.27, 7.59, 8.73, 10.04, 10.55, 11.64, 12.33, 11.9, 9.47, 10.13, 10.41, 9.71, 9.63, 10.62, 9.48, 7.9, -11.18, -10.0, -11.28, -11.18, -10.73, -10.73, -10.73, 5.6, 5.6, 5.6, 7.19, 7.19, 9.17, 9.48, 8.66, 7.69, 7.93, 5.63, 5.81, 5.81, 4.05, 4.05, 2.09, 0.0, 0.0, 0.0, 2.09, 5.81, 9.44, 12.51, 13.19, 13.99, 13.99, 14.13, 13.7, 12.87, 12.87, 12.45, 12.45, 12.04, 12.04, 11.44, 11.03, 11.03, 10.62, 10.62, 9.86, 10.24, 10.24, 10.24, 9.3, 9.16, 9.5, 9.84, 8.85, 8.53, 7.9, 6.58, 6.95, 6.14, 6.32, 6.79, 6.44, 7.2, 7.21, 7.21, 6.79, 7.15, 6.71, 6.26, 5.36, 5.36, 5.36, 6.71, 6.71, 7.15, 7.21, 7.63, 7.07, 7.81, 8.8, 6.95, 9.2, 8.93, 10.0, 9.3, 9.77, 10.12, 10.37, 9.48, 4.03, 4.31, 20.56, 10.3, 9.58, 9.97, 9.2, 7.9, 6.44, -10.73, -10.6, -10.18, -9.75, -9.75, -9.75, 5.6, 5.6, 5.6, 5.8, 8.1, 8.1, 8.38, 8.66, 7.69, 6.4, 5.63, 5.81, 5.81, 4.05, 4.05, 2.09, 0.0, 0.0, 0.0, 2.09, 4.66, 8.18, 11.2, 12.51, 13.19, 13.99, 13.57, 13.28, 12.87, 12.45, 12.45, 12.04, 12.04, 12.04, 11.44, 11.03, 11.03, 10.16, 10.16, 9.86, 9.86, 9.86, 9.3, 9.3, 8.82, 8.82, 9.16, 8.53, 8.53, 7.15, 6.87, 6.58, 6.14, 6.64, 6.32, 6.01, 6.7, 6.7, 7.21, 7.21, 7.15, 6.71, 6.26, 5.81, 5.81, 5.81, 7.15, 6.71, 7.15, 7.6, 8.05, 7.6, 6.01, 6.32, 9.83, 9.39, 9.75, 9.6, 8.94, 9.3, 9.42, 7.82, 4.1, 1.66, 4.23, 20.38, 7.6, 9.17, 10.41, 10.28, 8.38, 7.27, 5.52, 0.0, -10.28, -10.28, -10.28, -10.28, 5.6, 5.6, 5.6, 5.6, 8.1, 8.1, 8.38, 7.44, 7.69, 6.2, 5.63, 5.63, 5.81, 4.05, 2.09, 2.09, 0.0, 0.0, 0.0, 2.15, 5.81, 7.32, 9.6, 11.2, 13.19, 13.07, 13.07, 13.28, 12.87, 12.45, 12.45, 12.04, 12.04, 11.62, 11.44, 11.03, 10.55, 10.16, 10.16, 9.48, 9.86, 9.86, 9.46, 8.82, 8.49, 8.49, 8.22, 7.56, 8.22, 7.9, 6.87, 5.7, 6.14, 6.95, 6.64, 6.32, 6.01, 7.07, 7.63, 7.21, 6.79, 7.15, 6.71, 6.26, 6.26, 6.26, 6.26, 6.26, 7.6, 7.6, 8.05, 8.49, 6.01, 6.32, 8.94, 8.94, 9.83, 10.52, 9.2, 8.38, 8.73, 7.73, 2.88, 4.95, 6.68, 14.54, 2.79, 9.8, 12.27, 11.18, 9.2, 7.36, 6.5, 5.52, 2.6, 0.0, 0.0, 0.0, 5.6, 5.6, 5.6, 5.6, 7.82, 8.1, 8.38, 7.69, 6.2, 6.2, 5.46, 5.63, 3.58, 3.58, 1.83, 0.0, 0.0, 0.0, 0.0, 4.18, 5.99, 7.32, 8.57, 9.6, 11.64, 13.07, 13.07, 12.87, 12.87, 12.45, 12.45, 11.6, 11.6, 11.2, 11.2, 10.55, 10.55, 10.16, 10.16, 9.48, 9.48, 9.86, 9.46, 9.09, 8.49, 8.15, 7.59, 6.98, 7.59, 6.87, 6.87, 5.7, 6.14, 6.95, 6.95, 6.64, 6.32, 7.44, 7.07, 7.21, 7.21, 7.15, 6.71, 6.71, 6.71, 6.0, 6.71, 6.26, 7.15, 0.0, 0.0, 0.0, 0.0, 6.32, 9.39, 9.39, 9.39, 9.54, 9.2, 8.38, 8.73, 8.22, 6.27, 8.08, 9.55, 6.08, -0.0, 10.41, 11.62, 10.96, 8.94, 6.97, 6.16, 5.0, 2.95, 2.02, 2.02, 2.02, 3.96, 3.96, 5.6, 5.6, 7.82, 7.82, 8.1, 7.44, 6.0, 6.0, 5.46, 5.63, 3.47, 3.58, 1.83, 0.0, 0.0, 0.0, 2.09, 4.18, 7.54, 8.06, 8.06, 8.85, 10.12, 12.5, 12.79, 12.39, 12.39, 11.99, 11.6, 11.6, 11.2, 11.2, 11.2, 10.8, 10.55, 10.62, 10.21, 9.77, 9.48, 9.48, 9.09, 9.09, 7.59, 7.59, 7.59, 7.59, 7.27, 6.58, 6.58, 5.7, 6.42, 6.14, 6.95, 5.63, 6.64, 6.32, 7.07, 6.7, 7.63, 6.8, 7.15, 6.71, 6.71, 6.71, 6.71, 6.71, 6.26, 0.0, 0.0, 0.0, 0.0, 8.94, 8.94, 8.94, 9.39, 9.83, 8.55, 8.58, 8.58, 6.94, 6.6, 7.04, 9.99, 6.97, 7.0, 11.45, 10.08, 9.2, 7.9, 5.98, 5.2, 3.82, 2.33, 1.69, 1.69, 1.69, 3.96, 3.96, 3.96, 5.6, 6.67, 8.1, 8.1, 7.19, 6.0, 6.0, 5.46, 3.93, 3.47, 3.58, 1.83, 1.83, 2.09, 2.09, 4.05, 5.81, 6.8, 8.06, 8.06, 8.85, 10.77, 11.9, 12.79, 12.39, 11.99, 11.99, 11.6, 11.2, 11.2, 11.2, 10.8, 10.8, 10.8, 10.16, 10.16, 9.77, 9.48, 9.48, 9.48, 9.09, 8.73, 7.59, 7.59, 7.27, 6.58, 6.58, 5.7, 6.42, 6.42, 6.14, 6.95, 5.9, 6.64, 6.32, 7.44, 7.07, 7.2, 6.8, 6.8, 7.15, 7.15, 7.15, 7.15, 7.15, 4.74, 0.0, 0.0, 0.0, 0.0, 8.49, 8.94, 8.94, 9.39, 9.83, 9.2, 7.27, 7.9, 5.99, 4.38, 4.43, 6.4, 7.17, 5.83, 8.05, 6.95, 5.7, 4.8, 2.71, 2.52, 1.84, 2.1, 1.33, 1.33, 1.33, 3.96, 3.96, 3.96, 5.6, 6.67, 8.1, 8.1, 6.0, 6.0, 6.0, 3.81, 3.81, 3.93, 3.58, 3.58, 1.83, 2.09, 4.05, 5.18, 6.8, 8.06, 8.06, 7.38, 9.71, 10.77, 12.27, 11.88, 11.88, 11.5, 11.38, 11.8, 11.39, 11.39, 10.35, 10.35, 10.35, 10.16, 10.16, 10.16, 9.48, 9.48, 9.48, 9.48, 8.73, 8.73, 8.24, 8.24, 6.58, 6.58, 6.58, 5.7, 5.46, 6.42, 6.14, 6.14, 6.95, 5.63, 6.64, 6.32, 6.01, 6.01, 7.2, 7.2, 6.8, 7.15, 7.15, 7.15, 7.15, 0.0, 0.0, 0.0, 0.0, 0.0, 0.0, 8.49, 8.94, 9.39, 9.39, 9.83, 7.27, 6.2, 3.68, 2.32, 2.56, 3.99, 6.36, 7.27, 7.74, 6.71, 5.39, 3.98, 0.0, 0.0, 0.0, 0.0, 0.0, 0.0, 0.0, 3.96, 3.96, 3.96, 6.44, 6.67, 6.67, 6.67, 6.0, 6.0, 6.0, 3.81, 3.81, 3.93, 3.47, 3.58, 3.47, 3.47, 5.18, 5.18, 6.6, 8.06, 7.38, 7.38, 8.43, 11.29, 11.35, 11.35, 12.17, 11.77, 11.38, 11.38, 10.99, 10.99, 10.35, 10.35, 10.35, 10.04, 9.67, 9.3, 8.94, 8.94, 8.94, 8.58, 8.15, 8.15, 8.15, 7.27, 7.27, 6.58, 6.58, 6.58, 5.46, 6.14, 6.14, 6.14, 6.64, 5.63, 6.64, 6.64, 4.96, 6.01, 6.01, 7.2, 5.37, 5.37, 7.15, 0.0, 0.0, 0.0, 0.0, 0.0, 0.0, 0.0, 0.0, 0.0, 0.0, 8.94, 9.39, 9.39, 7.27, 7.59, 4.32, 2.45, 2.64, 3.86, 5.56, 7.6, 8.83, 7.79, 7.11, 5.6, 3.08, -1.84, -3.07, -1.39, -1.58, -1.58, -1.58, 3.96, 3.96, 3.96, 4.65, 6.44, 6.67, 6.67, 5.8, 6.0, 6.0, 3.81, 3.81, 3.93, 3.47, 3.47, 3.47, 3.47, 5.02, 5.18, 6.6, 7.16, 7.38, 8.43, 9.71, 10.69, 11.35, 11.69, 11.31, 11.77, 11.38, 11.38, 10.99, 10.6, 10.35, 10.35, 10.04, 10.04, 9.67, 9.3, 9.3, 8.94, 8.94, 8.49, 8.15, 8.15, 7.59, 7.27, 7.27, 6.58, 6.58, 6.3, 5.46, 5.46, 6.14, 6.14, 5.86, 5.63, 5.36, 6.64, 6.32, 6.32, 6.01, 5.69, 5.69, 5.37, 0.0, 0.0, 0.0, 0.0, 0.0, 0.0, 0.0, 0.0, 0.0, 0.0, 0.0, 0.0, 9.39, 9.39, 9.83, 7.27, 4.15, 2.37, 2.63, 4.62, 6.37, 8.39, 8.83, 7.93, 8.01, 7.93, 5.47, 0.0, -7.9, -5.75, -5.2, -5.2, -5.2, 2.06, 2.06, 4.1, 4.1, 4.81, 5.8, 5.8, 5.8, 5.8, 3.68, 3.68, 3.81, 3.47, 3.47, 3.47, 3.47, 4.52, 4.52, 4.52, 5.99, 7.16, 7.16, 8.18, 9.71, 10.69, 10.82, 11.35, 11.31, 11.31, 10.94, 10.94, 10.25, 9.89, 9.89, 9.89, 9.17, 9.17, 8.75, 9.3, 8.94, 8.94, 8.49, 8.49, 8.15, 8.15, 7.59, 7.59, 7.27, 6.58, 6.58, 6.3, 5.46, 5.46, 5.46, 5.86, 5.86, 5.63, 5.36, 5.36, 4.96, 4.96, 6.01, 6.01, 3.6, 3.6, 0.0, 0.0, 0.0, -8.05, -5.37, -5.06, -3.0, -4.11, 0.0, 0.0, 0.0, 0.0, 0.0, 9.39, 9.83, 4.6, 2.6, 2.52, 2.81, 4.76, 7.91, 8.99, 9.22, 9.22, 9.12, 9.28, 8.61, 5.21, -7.9, -8.94, -6.97, -6.97, -6.97, 2.06, 2.06, 4.1, 4.1, 4.81, 5.8, 5.8, 5.8, 5.8, 3.68, 3.68, 3.81, 3.47, 3.47, 3.47, 3.47, 4.52, 4.52, 4.52, 5.99, 7.16, 7.16, 8.18, 9.71, 10.69, 10.82, 11.35, 11.31, 11.31, 10.94, 10.94, 10.25, 9.89, 9.89, 9.89, 9.17, 9.17, 8.75, 9.3, 8.94, 8.94, 8.49, 8.49, 8.15, 8.15, 7.59, 7.59, 7.27, 6.58, 6.58, 6.3, 5.46, 5.46, 5.46, 5.86, 5.86, 5.63, 5.36, 5.36, 4.96, 4.96, 6.01, 6.01, 3.6, 3.6, 0.0, 0.0, 0.0, -8.05, -5.37, -5.06, -3.0, -4.11, 0.0, 0.0, 0.0, 0.0, 0.0, 9.39, 9.83, 4.6, 2.6, 3.07, 3.18, 5.11, 7.23, 8.86, 9.77, 9.49, 9.39, 9.54, 9.42, 7.54, 0.0, -11.18, -9.67, -9.67, -9.67]}]